Observation data for Stamford on 11/18/2019      Previous  Date       Current Mesonet Observations  Soil Data  Daily Summary Page  Observations in Plain Language
KST2 180600Z 24006KT 05/03 A3007 RMK A01 T00510029  RH  086%=      5-min Rain = 0
KST2 180601Z 24005KT 05/03 A3007 RMK A01 T00510029  RH  086%=      5-min Rain = 0
KST2 180602Z 25005KT 05/03 A3007 RMK A01 T00510029  RH  086%=      5-min Rain = 0
KST2 180603Z 25005KT 05/03 A3007 RMK A01 T00500029  RH  086%=      5-min Rain = 0
KST2 180604Z 25006KT 05/03 A3007 RMK A01 T00500028  RH  086%=      5-min Rain = 0
KST2 180605Z 24006KT 05/03 A3007 RMK A01 T00490028  RH  086%=      5-min Rain = 0
KST2 180606Z 24006KT 05/03 A3007 RMK A01 T00490028  RH  086%=      5-min Rain = 0
KST2 180607Z 24006KT 05/03 A3007 RMK A01 T00480027  RH  086%=      5-min Rain = 0
KST2 180608Z 24006KT 05/03 A3007 RMK A01 T00490028  RH  086%=      5-min Rain = 0
KST2 180609Z 24006KT 05/03 A3007 RMK A01 T00480027  RH  086%=      5-min Rain = 0
KST2 180610Z 24006KT 05/03 A3007 RMK A01 T00480028  RH  087%=      5-min Rain = 0
KST2 180611Z 24006KT 05/03 A3007 RMK A01 T00480028  RH  087%=      5-min Rain = 0
KST2 180612Z 24006KT 05/03 A3007 RMK A01 T00480027  RH  087%=      5-min Rain = 0
KST2 180613Z 24006KT 05/03 A3007 RMK A01 T00480027  RH  087%=      5-min Rain = 0
KST2 180614Z 24006KT 05/03 A3006 RMK A01 T00470027  RH  087%=      5-min Rain = 0
KST2 180615Z 24006KT 05/03 A3006 RMK A01 T00470027  RH  087%=      5-min Rain = 0
KST2 180616Z 24006KT 05/03 A3006 RMK A01 T00470027  RH  087%=      5-min Rain = 0
KST2 180617Z 24006KT 05/03 A3006 RMK A01 T00470028  RH  087%=      5-min Rain = 0
KST2 180618Z 24007KT 05/03 A3006 RMK A01 T00470028  RH  087%=      5-min Rain = 0
KST2 180619Z 24007KT 05/03 A3006 RMK A01 T00470028  RH  087%=      5-min Rain = 0
KST2 180620Z 24007KT 05/03 A3006 RMK A01 T00470028  RH  087%=      5-min Rain = 0
KST2 180621Z 24007KT 05/03 A3006 RMK A01 T00480028  RH  087%=      5-min Rain = 0
KST2 180622Z 24007KT 05/03 A3006 RMK A01 T00480028  RH  087%=      5-min Rain = 0
KST2 180623Z 24007KT 05/03 A3006 RMK A01 T00490028  RH  087%=      5-min Rain = 0
KST2 180624Z 23007KT 05/03 A3006 RMK A01 T00480028  RH  087%=      5-min Rain = 0
KST2 180625Z 23007KT 05/03 A3006 RMK A01 T00480028  RH  087%=      5-min Rain = 0
KST2 180626Z 23007KT 05/03 A3006 RMK A01 T00490028  RH  087%=      5-min Rain = 0
KST2 180627Z 23007KT 05/03 A3006 RMK A01 T00480028  RH  087%=      5-min Rain = 0
KST2 180628Z 23006KT 05/03 A3006 RMK A01 T00480028  RH  087%=      5-min Rain = 0
KST2 180629Z 23006KT 05/03 A3006 RMK A01 T00480028  RH  087%=      5-min Rain = 0
KST2 180630Z 24006KT 05/03 A3006 RMK A01 T00480028  RH  087%=      5-min Rain = 0
KST2 180631Z 24006KT 05/03 A3006 RMK A01 T00480028  RH  087%=      5-min Rain = 0
KST2 180632Z 24007KT 05/03 A3006 RMK A01 T00480028  RH  087%=      5-min Rain = 0
KST2 180633Z 23006KT 05/03 A3006 RMK A01 T00490028  RH  087%=      5-min Rain = 0
KST2 180634Z 23006KT 05/03 A3006 RMK A01 T00490028  RH  087%=      5-min Rain = 0
KST2 180635Z 23006KT 05/03 A3006 RMK A01 T00490029  RH  087%=      5-min Rain = 0
KST2 180636Z 23006KT 05/03 A3006 RMK A01 T00490029  RH  087%=      5-min Rain = 0
KST2 180637Z 23006KT 05/03 A3006 RMK A01 T00490029  RH  087%=      5-min Rain = 0
KST2 180638Z 23006KT 05/03 A3006 RMK A01 T00490029  RH  087%=      5-min Rain = 0
KST2 180639Z 23006KT 05/03 A3006 RMK A01 T00490029  RH  087%=      5-min Rain = 0
KST2 180640Z 22006KT 05/03 A3006 RMK A01 T00490029  RH  087%=      5-min Rain = 0
KST2 180641Z 21005KT 05/03 A3006 RMK A01 T00490029  RH  086%=      5-min Rain = 0
KST2 180642Z 19005KT 05/03 A3006 RMK A01 T00490028  RH  086%=      5-min Rain = 0
KST2 180643Z 20005KT 05/03 A3006 RMK A01 T00470025  RH  086%=      5-min Rain = 0
KST2 180644Z 21005KT 05/02 A3006 RMK A01 T00450024  RH  086%=      5-min Rain = 0
KST2 180645Z 21005KT 04/02 A3005 RMK A01 T00440024  RH  087%=      5-min Rain = 0
KST2 180646Z 21005KT 04/03 A3005 RMK A01 T00440025  RH  087%=      5-min Rain = 0
KST2 180647Z 21005KT 04/03 A3005 RMK A01 T00440025  RH  087%=      5-min Rain = 0
KST2 180648Z 22005KT 04/03 A3005 RMK A01 T00440025  RH  088%=      5-min Rain = 0
KST2 180649Z 22005KT 04/03 A3005 RMK A01 T00440025  RH  088%=      5-min Rain = 0
KST2 180650Z 22005KT 04/03 A3005 RMK A01 T00440025  RH  087%=      5-min Rain = 0
KST2 180651Z 22005KT 04/03 A3005 RMK A01 T00440025  RH  088%=      5-min Rain = 0
KST2 180652Z 22005KT 04/03 A3005 RMK A01 T00440025  RH  088%=      5-min Rain = 0
KST2 180653Z 22005KT 04/03 A3005 RMK A01 T00440025  RH  088%=      5-min Rain = 0
KST2 180654Z 22004KT 04/03 A3005 RMK A01 T00440025  RH  088%=      5-min Rain = 0
KST2 180655Z 22004KT 04/03 A3005 RMK A01 T00430025  RH  088%=      5-min Rain = 0
KST2 180656Z 22004KT 04/03 A3005 RMK A01 T00430025  RH  088%=      5-min Rain = 0
KST2 180657Z 22004KT 04/03 A3005 RMK A01 T00430025  RH  088%=      5-min Rain = 0
KST2 180658Z 22004KT 04/03 A3005 RMK A01 T00430025  RH  088%=      5-min Rain = 0
KST2 180659Z 22004KT 04/03 A3005 RMK A01 T00430025  RH  088%=      5-min Rain = 0
KST2 180700Z 22004KT 04/03 A3005 RMK A01 T00430025  RH  088%=      5-min Rain = 0
KST2 180701Z 22004KT 04/02 A3005 RMK A01 T00430024  RH  088%=      5-min Rain = 0
KST2 180702Z 22004KT 04/03 A3005 RMK A01 T00430025  RH  088%=      5-min Rain = 0
KST2 180703Z 22004KT 04/03 A3005 RMK A01 T00430025  RH  088%=      5-min Rain = 0
KST2 180704Z 22004KT 04/02 A3005 RMK A01 T00420024  RH  088%=      5-min Rain = 0
KST2 180705Z 22003KT 04/02 A3005 RMK A01 T00420024  RH  088%=      5-min Rain = 0
KST2 180706Z 22004KT 04/02 A3005 RMK A01 T00430024  RH  088%=      5-min Rain = 0
KST2 180707Z 21004KT 04/02 A3005 RMK A01 T00420024  RH  088%=      5-min Rain = 0
KST2 180708Z 21004KT 04/02 A3004 RMK A01 T00420024  RH  088%=      5-min Rain = 0
KST2 180709Z 21004KT 04/02 A3004 RMK A01 T00420024  RH  088%=      5-min Rain = 0
KST2 180710Z 21004KT 04/02 A3004 RMK A01 T00420024  RH  088%=      5-min Rain = 0
KST2 180711Z 22004KT 04/02 A3004 RMK A01 T00420024  RH  088%=      5-min Rain = 0
KST2 180712Z 21004KT 04/03 A3004 RMK A01 T00420025  RH  088%=      5-min Rain = 0
KST2 180713Z 21004KT 04/02 A3004 RMK A01 T00420024  RH  088%=      5-min Rain = 0
KST2 180714Z 21005KT 04/02 A3004 RMK A01 T00420024  RH  088%=      5-min Rain = 0
KST2 180715Z 21004KT 04/02 A3004 RMK A01 T00420024  RH  088%=      5-min Rain = 0
KST2 180716Z 21004KT 04/03 A3004 RMK A01 T00420025  RH  088%=      5-min Rain = 0
KST2 180717Z 20003KT 04/02 A3004 RMK A01 T00420024  RH  088%=      5-min Rain = 0
KST2 180718Z 20003KT 04/03 A3004 RMK A01 T00420025  RH  088%=      5-min Rain = 0
KST2 180719Z 20003KT 04/02 A3004 RMK A01 T00420024  RH  088%=      5-min Rain = 0
KST2 180720Z 20003KT 04/02 A3004 RMK A01 T00420024  RH  088%=      5-min Rain = 0
KST2 180721Z 20003KT 04/02 A3004 RMK A01 T00420024  RH  088%=      5-min Rain = 0
KST2 180722Z 20002KT 04/02 A3004 RMK A01 T00420024  RH  088%=      5-min Rain = 0
KST2 180723Z 21002KT 04/02 A3004 RMK A01 T00420024  RH  088%=      5-min Rain = 0
KST2 180724Z 21002KT 04/02 A3004 RMK A01 T00420024  RH  088%=      5-min Rain = 0
KST2 180725Z 21002KT 04/02 A3004 RMK A01 T00420024  RH  088%=      5-min Rain = 0
KST2 180726Z 22002KT 04/02 A3004 RMK A01 T00420024  RH  088%=      5-min Rain = 0
KST2 180727Z 22002KT 04/02 A3004 RMK A01 T00420024  RH  088%=      5-min Rain = 0
KST2 180728Z 23002KT 04/02 A3004 RMK A01 T00420024  RH  088%=      5-min Rain = 0
KST2 180729Z 23002KT 04/02 A3004 RMK A01 T00420024  RH  088%=      5-min Rain = 0
KST2 180730Z 23003KT 04/02 A3004 RMK A01 T00420024  RH  088%=      5-min Rain = 0
KST2 180731Z 23003KT 04/02 A3004 RMK A01 T00420024  RH  088%=      5-min Rain = 0
KST2 180732Z 23003KT 04/02 A3004 RMK A01 T00410024  RH  088%=      5-min Rain = 0
KST2 180733Z 23003KT 04/02 A3004 RMK A01 T00410024  RH  088%=      5-min Rain = 0
KST2 180734Z 23003KT 04/02 A3004 RMK A01 T00410024  RH  088%=      5-min Rain = 0
KST2 180735Z 23003KT 04/02 A3004 RMK A01 T00410024  RH  088%=      5-min Rain = 0
KST2 180736Z 23003KT 04/02 A3004 RMK A01 T00410023  RH  088%=      5-min Rain = 0
KST2 180737Z 23002KT 04/02 A3004 RMK A01 T00410023  RH  088%=      5-min Rain = 0
KST2 180738Z 23002KT 04/02 A3004 RMK A01 T00410023  RH  088%=      5-min Rain = 0
KST2 180739Z 22003KT 04/02 A3004 RMK A01 T00400022  RH  088%=      5-min Rain = 0
KST2 180740Z 22003KT 04/02 A3004 RMK A01 T00400022  RH  088%=      5-min Rain = 0
KST2 180741Z 22003KT 04/02 A3004 RMK A01 T00400023  RH  089%=      5-min Rain = 0
KST2 180742Z 22003KT 04/02 A3004 RMK A01 T00400023  RH  089%=      5-min Rain = 0
KST2 180743Z 21003KT 04/02 A3004 RMK A01 T00400023  RH  089%=      5-min Rain = 0
KST2 180744Z 21003KT 04/02 A3004 RMK A01 T00400023  RH  089%=      5-min Rain = 0
KST2 180745Z 21003KT 04/02 A3004 RMK A01 T00400024  RH  089%=      5-min Rain = 0
KST2 180746Z 21003KT 04/02 A3004 RMK A01 T00400024  RH  089%=      5-min Rain = 0
KST2 180747Z 21003KT 04/02 A3004 RMK A01 T00400024  RH  089%=      5-min Rain = 0
KST2 180748Z 21003KT 04/02 A3004 RMK A01 T00400023  RH  089%=      5-min Rain = 0
KST2 180749Z 22003KT 04/02 A3004 RMK A01 T00400024  RH  089%=      5-min Rain = 0
KST2 180750Z 22004KT 04/02 A3004 RMK A01 T00400023  RH  089%=      5-min Rain = 0
KST2 180751Z 22004KT 04/02 A3004 RMK A01 T00400024  RH  089%=      5-min Rain = 0
KST2 180752Z 22005KT 04/02 A3004 RMK A01 T00390023  RH  089%=      5-min Rain = 0
KST2 180753Z 21005KT 04/02 A3004 RMK A01 T00390023  RH  089%=      5-min Rain = 0
KST2 180754Z 21005KT 04/02 A3004 RMK A01 T00390023  RH  089%=      5-min Rain = 0
KST2 180755Z 21005KT 04/02 A3004 RMK A01 T00390023  RH  089%=      5-min Rain = 0
KST2 180756Z 20006KT 04/02 A3004 RMK A01 T00390023  RH  089%=      5-min Rain = 0
KST2 180757Z 18006KT 04/02 A3004 RMK A01 T00390023  RH  089%=      5-min Rain = 0
KST2 180758Z 18006KT 04/02 A3004 RMK A01 T00390022  RH  089%=      5-min Rain = 0
KST2 180759Z 18006KT 04/02 A3004 RMK A01 T00380022  RH  089%=      5-min Rain = 0
KST2 180800Z 18006KT 04/02 A3004 RMK A01 T00380021  RH  089%=      5-min Rain = 0
KST2 180801Z 18006KT 04/02 A3004 RMK A01 T00370020  RH  089%=      5-min Rain = 0
KST2 180802Z 18006KT 04/02 A3004 RMK A01 T00360019  RH  089%=      5-min Rain = 0
KST2 180803Z 18005KT 04/02 A3004 RMK A01 T00350018  RH  089%=      5-min Rain = 0
KST2 180804Z 18005KT 04/02 A3004 RMK A01 T00350018  RH  089%=      5-min Rain = 0
KST2 180805Z 18005KT 03/02 A3004 RMK A01 T00340018  RH  089%=      5-min Rain = 0
KST2 180806Z 18005KT 03/02 A3004 RMK A01 T00330017  RH  089%=      5-min Rain = 0
KST2 180807Z 18005KT 03/02 A3004 RMK A01 T00330017  RH  090%=      5-min Rain = 0
KST2 180808Z 18005KT 03/02 A3004 RMK A01 T00320017  RH  090%=      5-min Rain = 0
KST2 180809Z 18004KT 03/02 A3003 RMK A01 T00320017  RH  090%=      5-min Rain = 0
KST2 180810Z 19004KT 03/02 A3003 RMK A01 T00320017  RH  090%=      5-min Rain = 0
KST2 180811Z 20004KT 03/02 A3004 RMK A01 T00320017  RH  090%=      5-min Rain = 0
KST2 180812Z 20003KT 03/02 A3004 RMK A01 T00320018  RH  090%=      5-min Rain = 0
KST2 180813Z 20003KT 03/02 A3004 RMK A01 T00320018  RH  090%=      5-min Rain = 0
KST2 180814Z 19003KT 03/02 A3004 RMK A01 T00320018  RH  091%=      5-min Rain = 0
KST2 180815Z 19003KT 03/02 A3004 RMK A01 T00330019  RH  091%=      5-min Rain = 0
KST2 180816Z 19003KT 03/02 A3004 RMK A01 T00330019  RH  091%=      5-min Rain = 0
KST2 180817Z 18003KT 03/02 A3004 RMK A01 T00330019  RH  090%=      5-min Rain = 0
KST2 180818Z 18003KT 03/02 A3004 RMK A01 T00340020  RH  090%=      5-min Rain = 0
KST2 180819Z 17003KT 03/02 A3004 RMK A01 T00340019  RH  090%=      5-min Rain = 0
KST2 180820Z 18003KT 03/02 A3004 RMK A01 T00340019  RH  090%=      5-min Rain = 0
KST2 180821Z 18003KT 03/02 A3004 RMK A01 T00340019  RH  090%=      5-min Rain = 0
KST2 180822Z 18003KT 03/02 A3003 RMK A01 T00340019  RH  090%=      5-min Rain = 0
KST2 180823Z 18003KT 03/02 A3003 RMK A01 T00340019  RH  090%=      5-min Rain = 0
KST2 180824Z 18003KT 03/02 A3003 RMK A01 T00340018  RH  090%=      5-min Rain = 0
KST2 180825Z 18004KT 03/02 A3003 RMK A01 T00340018  RH  090%=      5-min Rain = 0
KST2 180826Z 18003KT 03/02 A3003 RMK A01 T00340018  RH  090%=      5-min Rain = 0
KST2 180827Z 18003KT 03/02 A3003 RMK A01 T00340018  RH  090%=      5-min Rain = 0
KST2 180828Z 18003KT 03/02 A3003 RMK A01 T00340018  RH  090%=      5-min Rain = 0
KST2 180829Z 19003KT 03/02 A3003 RMK A01 T00340018  RH  090%=      5-min Rain = 0
KST2 180830Z 19002KT 03/02 A3003 RMK A01 T00340018  RH  090%=      5-min Rain = 0
KST2 180831Z 19002KT 03/02 A3003 RMK A01 T00330018  RH  090%=      5-min Rain = 0
KST2 180832Z 19002KT 03/02 A3003 RMK A01 T00330018  RH  090%=      5-min Rain = 0
KST2 180833Z 19003KT 03/02 A3003 RMK A01 T00330018  RH  090%=      5-min Rain = 0
KST2 180834Z 18002KT 03/02 A3003 RMK A01 T00330018  RH  090%=      5-min Rain = 0
KST2 180835Z 18003KT 03/02 A3003 RMK A01 T00330018  RH  090%=      5-min Rain = 0
KST2 180836Z 17004KT 03/02 A3003 RMK A01 T00330018  RH  090%=      5-min Rain = 0
KST2 180837Z 16005KT 03/02 A3003 RMK A01 T00330017  RH  090%=      5-min Rain = 0
KST2 180838Z 16005KT 03/02 A3003 RMK A01 T00320016  RH  089%=      5-min Rain = 0
KST2 180839Z 17004KT 03/01 A3003 RMK A01 T00300014  RH  089%=      5-min Rain = 0
KST2 180840Z 17005KT 03/01 A3003 RMK A01 T00300014  RH  090%=      5-min Rain = 0
KST2 180841Z 17005KT 03/01 A3003 RMK A01 T00290014  RH  090%=      5-min Rain = 0
KST2 180842Z 17005KT 03/01 A3003 RMK A01 T00290014  RH  090%=      5-min Rain = 0
KST2 180843Z 17004KT 03/01 A3003 RMK A01 T00290014  RH  090%=      5-min Rain = 0
KST2 180844Z 18004KT 03/01 A3003 RMK A01 T00290014  RH  090%=      5-min Rain = 0
KST2 180845Z 18004KT 03/02 A3003 RMK A01 T00290015  RH  090%=      5-min Rain = 0
KST2 180846Z 18004KT 03/02 A3003 RMK A01 T00300015  RH  090%=      5-min Rain = 0
KST2 180847Z 18004KT 03/02 A3002 RMK A01 T00300015  RH  090%=      5-min Rain = 0
KST2 180848Z 18005KT 03/02 A3002 RMK A01 T00300015  RH  090%=      5-min Rain = 0
KST2 180849Z 18005KT 03/01 A3002 RMK A01 T00300014  RH  090%=      5-min Rain = 0
KST2 180850Z 18005KT 03/01 A3002 RMK A01 T00300014  RH  090%=      5-min Rain = 0
KST2 180851Z 18004KT 03/01 A3002 RMK A01 T00290014  RH  090%=      5-min Rain = 0
KST2 180852Z 18004KT 03/01 A3002 RMK A01 T00290014  RH  090%=      5-min Rain = 0
KST2 180853Z 18004KT 03/01 A3002 RMK A01 T00290014  RH  090%=      5-min Rain = 0
KST2 180854Z 18004KT 03/02 A3002 RMK A01 T00290015  RH  090%=      5-min Rain = 0
KST2 180855Z 18004KT 03/02 A3002 RMK A01 T00300015  RH  090%=      5-min Rain = 0
KST2 180856Z 18004KT 03/02 A3002 RMK A01 T00300015  RH  090%=      5-min Rain = 0
KST2 180857Z 18004KT 03/02 A3002 RMK A01 T00300016  RH  090%=      5-min Rain = 0
KST2 180858Z 18004KT 03/02 A3002 RMK A01 T00310016  RH  090%=      5-min Rain = 0
KST2 180859Z 18004KT 03/02 A3002 RMK A01 T00310016  RH  090%=      5-min Rain = 0
KST2 180900Z 18004KT 03/02 A3002 RMK A01 T00310016  RH  090%=      5-min Rain = 0
KST2 180901Z 19004KT 03/02 A3002 RMK A01 T00310016  RH  090%=      5-min Rain = 0
KST2 180902Z 18004KT 03/02 A3002 RMK A01 T00320017  RH  090%=      5-min Rain = 0
KST2 180903Z 18005KT 03/02 A3002 RMK A01 T00310017  RH  090%=      5-min Rain = 0
KST2 180904Z 18004KT 03/02 A3002 RMK A01 T00310017  RH  090%=      5-min Rain = 0
KST2 180905Z 18005KT 03/02 A3002 RMK A01 T00320017  RH  090%=      5-min Rain = 0
KST2 180906Z 18005KT 03/02 A3002 RMK A01 T00320017  RH  090%=      5-min Rain = 0
KST2 180907Z 18005KT 03/02 A3002 RMK A01 T00320017  RH  090%=      5-min Rain = 0
KST2 180908Z 18005KT 03/02 A3002 RMK A01 T00320017  RH  090%=      5-min Rain = 0
KST2 180909Z 18005KT 03/02 A3002 RMK A01 T00310016  RH  090%=      5-min Rain = 0
KST2 180910Z 18004KT 03/02 A3002 RMK A01 T00320017  RH  090%=      5-min Rain = 0
KST2 180911Z 19004KT 03/02 A3002 RMK A01 T00320017  RH  090%=      5-min Rain = 0
KST2 180912Z 19004KT 03/02 A3002 RMK A01 T00320017  RH  090%=      5-min Rain = 0
KST2 180913Z 19004KT 03/02 A3002 RMK A01 T00320017  RH  090%=      5-min Rain = 0
KST2 180914Z 20005KT 03/02 A3002 RMK A01 T00320017  RH  090%=      5-min Rain = 0
KST2 180915Z 20005KT 03/02 A3002 RMK A01 T00320017  RH  090%=      5-min Rain = 0
KST2 180916Z 19005KT 03/02 A3002 RMK A01 T00310016  RH  090%=      5-min Rain = 0
KST2 180917Z 19005KT 03/02 A3002 RMK A01 T00300015  RH  090%=      5-min Rain = 0
KST2 180918Z 18005KT 03/01 A3001 RMK A01 T00290014  RH  090%=      5-min Rain = 0
KST2 180919Z 19005KT 03/02 A3001 RMK A01 T00290015  RH  090%=      5-min Rain = 0
KST2 180920Z 19005KT 03/02 A3001 RMK A01 T00290015  RH  090%=      5-min Rain = 0
KST2 180921Z 19004KT 03/02 A3001 RMK A01 T00290015  RH  090%=      5-min Rain = 0
KST2 180922Z 18004KT 03/02 A3002 RMK A01 T00290015  RH  091%=      5-min Rain = 0
KST2 180923Z 18004KT 03/02 A3002 RMK A01 T00290015  RH  091%=      5-min Rain = 0
KST2 180924Z 18004KT 03/02 A3002 RMK A01 T00290015  RH  091%=      5-min Rain = 0
KST2 180925Z 18005KT 03/02 A3002 RMK A01 T00290015  RH  090%=      5-min Rain = 0
KST2 180926Z 18005KT 03/01 A3002 RMK A01 T00280013  RH  090%=      5-min Rain = 0
KST2 180927Z 18005KT 03/01 A3002 RMK A01 T00280013  RH  090%=      5-min Rain = 0
KST2 180928Z 18005KT 03/01 A3002 RMK A01 T00270013  RH  090%=      5-min Rain = 0
KST2 180929Z 18005KT 03/01 A3002 RMK A01 T00270013  RH  090%=      5-min Rain = 0
KST2 180930Z 18005KT 03/01 A3002 RMK A01 T00270013  RH  090%=      5-min Rain = 0
KST2 180931Z 18005KT 03/01 A3002 RMK A01 T00260013  RH  091%=      5-min Rain = 0
KST2 180932Z 18004KT 03/01 A3002 RMK A01 T00260013  RH  091%=      5-min Rain = 0
KST2 180933Z 18004KT 03/01 A3002 RMK A01 T00260013  RH  091%=      5-min Rain = 0
KST2 180934Z 18004KT 03/01 A3002 RMK A01 T00260013  RH  091%=      5-min Rain = 0
KST2 180935Z 17004KT 03/01 A3002 RMK A01 T00260013  RH  091%=      5-min Rain = 0
KST2 180936Z 17004KT 03/01 A3002 RMK A01 T00260012  RH  091%=      5-min Rain = 0
KST2 180937Z 17004KT 03/01 A3002 RMK A01 T00260012  RH  091%=      5-min Rain = 0
KST2 180938Z 17004KT 03/01 A3001 RMK A01 T00250012  RH  091%=      5-min Rain = 0
KST2 180939Z 16004KT 03/01 A3001 RMK A01 T00260012  RH  091%=      5-min Rain = 0
KST2 180940Z 16004KT 03/01 A3001 RMK A01 T00250012  RH  091%=      5-min Rain = 0
KST2 180941Z 17004KT 03/01 A3001 RMK A01 T00250012  RH  091%=      5-min Rain = 0
KST2 180942Z 17004KT 02/01 A3001 RMK A01 T00240011  RH  091%=      5-min Rain = 0
KST2 180943Z 17004KT 02/01 A3001 RMK A01 T00240011  RH  091%=      5-min Rain = 0
KST2 180944Z 17004KT 02/01 A3001 RMK A01 T00240012  RH  092%=      5-min Rain = 0
KST2 180945Z 17004KT 02/01 A3001 RMK A01 T00240012  RH  092%=      5-min Rain = 0
KST2 180946Z 18004KT 02/01 A3002 RMK A01 T00240012  RH  092%=      5-min Rain = 0
KST2 180947Z 18005KT 02/01 A3002 RMK A01 T00240012  RH  092%=      5-min Rain = 0
KST2 180948Z 18005KT 02/01 A3002 RMK A01 T00240012  RH  092%=      5-min Rain = 0
KST2 180949Z 18005KT 02/01 A3002 RMK A01 T00240012  RH  092%=      5-min Rain = 0
KST2 180950Z 18004KT 03/01 A3002 RMK A01 T00250012  RH  092%=      5-min Rain = 0
KST2 180951Z 18004KT 03/01 A3001 RMK A01 T00250012  RH  092%=      5-min Rain = 0
KST2 180952Z 18004KT 03/01 A3001 RMK A01 T00250012  RH  091%=      5-min Rain = 0
KST2 180953Z 18004KT 03/01 A3001 RMK A01 T00250013  RH  091%=      5-min Rain = 0
KST2 180954Z 18004KT 03/01 A3001 RMK A01 T00250013  RH  091%=      5-min Rain = 0
KST2 180955Z 18004KT 03/01 A3001 RMK A01 T00250013  RH  091%=      5-min Rain = 0
KST2 180956Z 18004KT 03/01 A3001 RMK A01 T00260013  RH  091%=      5-min Rain = 0
KST2 180957Z 18004KT 03/01 A3001 RMK A01 T00260013  RH  091%=      5-min Rain = 0
KST2 180958Z 18004KT 03/01 A3001 RMK A01 T00250013  RH  091%=      5-min Rain = 0
KST2 180959Z 18005KT 03/01 A3001 RMK A01 T00260013  RH  091%=      5-min Rain = 0
KST2 181000Z 18005KT 03/01 A3001 RMK A01 T00250013  RH  091%=      5-min Rain = 0
KST2 181001Z 18004KT 03/01 A3001 RMK A01 T00250013  RH  091%=      5-min Rain = 0
KST2 181002Z 18004KT 03/01 A3001 RMK A01 T00260013  RH  091%=      5-min Rain = 0
KST2 181003Z 18004KT 03/01 A3001 RMK A01 T00260013  RH  091%=      5-min Rain = 0
KST2 181004Z 18004KT 03/01 A3001 RMK A01 T00260013  RH  091%=      5-min Rain = 0
KST2 181005Z 18005KT 03/01 A3001 RMK A01 T00260013  RH  092%=      5-min Rain = 0
KST2 181006Z 18004KT 03/01 A3001 RMK A01 T00250013  RH  092%=      5-min Rain = 0
KST2 181007Z 18004KT 03/01 A3001 RMK A01 T00260013  RH  091%=      5-min Rain = 0
KST2 181008Z 18004KT 03/01 A3001 RMK A01 T00260013  RH  091%=      5-min Rain = 0
KST2 181009Z 18004KT 03/01 A3001 RMK A01 T00260013  RH  091%=      5-min Rain = 0
KST2 181010Z 18003KT 03/01 A3001 RMK A01 T00260014  RH  091%=      5-min Rain = 0
KST2 181011Z 19003KT 03/01 A3001 RMK A01 T00260014  RH  091%=      5-min Rain = 0
KST2 181012Z 19003KT 03/01 A3001 RMK A01 T00270014  RH  091%=      5-min Rain = 0
KST2 181013Z 19003KT 03/01 A3001 RMK A01 T00270014  RH  092%=      5-min Rain = 0
KST2 181014Z 19003KT 03/02 A3001 RMK A01 T00270015  RH  092%=      5-min Rain = 0
KST2 181015Z 18003KT 03/02 A3001 RMK A01 T00270015  RH  092%=      5-min Rain = 0
KST2 181016Z 18003KT 03/02 A3001 RMK A01 T00270015  RH  091%=      5-min Rain = 0
KST2 181017Z 19003KT 03/02 A3001 RMK A01 T00270015  RH  091%=      5-min Rain = 0
KST2 181018Z 19003KT 03/02 A3001 RMK A01 T00270015  RH  091%=      5-min Rain = 0
KST2 181019Z 19003KT 03/02 A3001 RMK A01 T00270015  RH  091%=      5-min Rain = 0
KST2 181020Z 18003KT 03/02 A3001 RMK A01 T00270015  RH  091%=      5-min Rain = 0
KST2 181021Z 18003KT 03/01 A3001 RMK A01 T00270014  RH  091%=      5-min Rain = 0
KST2 181022Z 18003KT 03/01 A3001 RMK A01 T00270014  RH  091%=      5-min Rain = 0
KST2 181023Z 17003KT 03/01 A3001 RMK A01 T00260013  RH  091%=      5-min Rain = 0
KST2 181024Z 17003KT 03/01 A3001 RMK A01 T00260014  RH  091%=      5-min Rain = 0
KST2 181025Z 17003KT 03/01 A3001 RMK A01 T00260013  RH  091%=      5-min Rain = 0
KST2 181026Z 17004KT 03/01 A3001 RMK A01 T00250013  RH  091%=      5-min Rain = 0
KST2 181027Z 17004KT 03/01 A30 RMK A01 T00250013  RH  091%=      5-min Rain = 0
KST2 181028Z 17004KT 03/01 A30 RMK A01 T00250013  RH  092%=      5-min Rain = 0
KST2 181029Z 17004KT 03/01 A30 RMK A01 T00250012  RH  092%=      5-min Rain = 0
KST2 181030Z 17004KT 03/01 A30 RMK A01 T00250012  RH  092%=      5-min Rain = 0
KST2 181031Z 17004KT 02/01 A30 RMK A01 T00240012  RH  092%=      5-min Rain = 0
KST2 181032Z 17004KT 02/01 A30 RMK A01 T00240012  RH  092%=      5-min Rain = 0
KST2 181033Z 17004KT 02/01 A30 RMK A01 T00240012  RH  092%=      5-min Rain = 0
KST2 181034Z 17004KT 02/01 A30 RMK A01 T00240012  RH  092%=      5-min Rain = 0
KST2 181035Z 17004KT 02/01 A30 RMK A01 T00240012  RH  092%=      5-min Rain = 0
KST2 181036Z 17004KT 02/01 A30 RMK A01 T00240012  RH  092%=      5-min Rain = 0
KST2 181037Z 17004KT 02/01 A30 RMK A01 T00230012  RH  092%=      5-min Rain = 0
KST2 181038Z 17004KT 02/01 A30 RMK A01 T00230012  RH  092%=      5-min Rain = 0
KST2 181039Z 17004KT 02/01 A30 RMK A01 T00230012  RH  092%=      5-min Rain = 0
KST2 181040Z 17004KT 02/01 A30 RMK A01 T00230012  RH  092%=      5-min Rain = 0
KST2 181041Z 17004KT 02/01 A30 RMK A01 T00230012  RH  092%=      5-min Rain = 0
KST2 181042Z 16004KT 02/01 A30 RMK A01 T00230012  RH  092%=      5-min Rain = 0
KST2 181043Z 17004KT 02/01 A30 RMK A01 T00230012  RH  092%=      5-min Rain = 0
KST2 181044Z 17004KT 02/01 A30 RMK A01 T00230012  RH  092%=      5-min Rain = 0
KST2 181045Z 17004KT 02/01 A30 RMK A01 T00230012  RH  092%=      5-min Rain = 0
KST2 181046Z 16004KT 02/01 A30 RMK A01 T00230013  RH  093%=      5-min Rain = 0
KST2 181047Z 16004KT 02/01 A30 RMK A01 T00230013  RH  093%=      5-min Rain = 0
KST2 181048Z 16004KT 02/01 A30 RMK A01 T00230012  RH  092%=      5-min Rain = 0
KST2 181049Z 16004KT 02/01 A30 RMK A01 T00230012  RH  092%=      5-min Rain = 0
KST2 181050Z 16004KT 02/01 A30 RMK A01 T00230012  RH  092%=      5-min Rain = 0
KST2 181051Z 16004KT 02/01 A30 RMK A01 T00220011  RH  092%=      5-min Rain = 0
KST2 181052Z 16004KT 02/01 A30 RMK A01 T00220011  RH  092%=      5-min Rain = 0
KST2 181053Z 16004KT 02/01 A30 RMK A01 T00220011  RH  092%=      5-min Rain = 0
KST2 181054Z 16004KT 02/01 A30 RMK A01 T00220011  RH  093%=      5-min Rain = 0
KST2 181055Z 16004KT 02/01 A30 RMK A01 T00220012  RH  093%=      5-min Rain = 0
KST2 181056Z 16004KT 02/01 A30 RMK A01 T00220012  RH  093%=      5-min Rain = 0
KST2 181057Z 17004KT 02/01 A30 RMK A01 T00220012  RH  093%=      5-min Rain = 0
KST2 181058Z 17004KT 02/01 A30 RMK A01 T00220011  RH  093%=      5-min Rain = 0
KST2 181059Z 17004KT 02/01 A30 RMK A01 T00220012  RH  093%=      5-min Rain = 0
KST2 181100Z 17004KT 02/01 A30 RMK A01 T00220012  RH  093%=      5-min Rain = 0
KST2 181101Z 16004KT 02/01 A30 RMK A01 T00220011  RH  093%=      5-min Rain = 0
KST2 181102Z 16004KT 02/01 A30 RMK A01 T00220011  RH  093%=      5-min Rain = 0
KST2 181103Z 16004KT 02/01 A30 RMK A01 T00220012  RH  093%=      5-min Rain = 0
KST2 181104Z 16004KT 02/01 A30 RMK A01 T00220011  RH  093%=      5-min Rain = 0
KST2 181105Z 17005KT 02/01 A30 RMK A01 T00220011  RH  093%=      5-min Rain = 0
KST2 181106Z 17005KT 02/01 A30 RMK A01 T00220012  RH  093%=      5-min Rain = 0
KST2 181107Z 17005KT 02/01 A30 RMK A01 T00220011  RH  093%=      5-min Rain = 0
KST2 181108Z 17005KT 02/01 A30 RMK A01 T00220012  RH  093%=      5-min Rain = 0
KST2 181109Z 17005KT 02/01 A30 RMK A01 T00220012  RH  093%=      5-min Rain = 0
KST2 181110Z 17005KT 02/01 A30 RMK A01 T00220012  RH  093%=      5-min Rain = 0
KST2 181111Z 17005KT 02/01 A30 RMK A01 T00220012  RH  093%=      5-min Rain = 0
KST2 181112Z 17005KT 02/01 A30 RMK A01 T00220012  RH  093%=      5-min Rain = 0
KST2 181113Z 17005KT 02/01 A30 RMK A01 T00220012  RH  093%=      5-min Rain = 0
KST2 181114Z 17005KT 02/01 A30 RMK A01 T00220011  RH  093%=      5-min Rain = 0
KST2 181115Z 17005KT 02/01 A30 RMK A01 T00220012  RH  093%=      5-min Rain = 0
KST2 181116Z 17005KT 02/01 A30 RMK A01 T00220011  RH  092%=      5-min Rain = 0
KST2 181117Z 17005KT 02/01 A30 RMK A01 T00220011  RH  092%=      5-min Rain = 0
KST2 181118Z 17006KT 02/01 A30 RMK A01 T00220011  RH  092%=      5-min Rain = 0
KST2 181119Z 17006KT 02/01 A30 RMK A01 T00220011  RH  092%=      5-min Rain = 0
KST2 181120Z 17006KT 02/01 A30 RMK A01 T00220011  RH  093%=      5-min Rain = 0
KST2 181121Z 17007KT 02/01 A30 RMK A01 T00220011  RH  093%=      5-min Rain = 0
KST2 181122Z 17006KT 02/01 A30 RMK A01 T00220011  RH  093%=      5-min Rain = 0
KST2 181123Z 17006KT 02/01 A30 RMK A01 T00220012  RH  093%=      5-min Rain = 0
KST2 181124Z 17005KT 02/01 A30 RMK A01 T00220011  RH  093%=      5-min Rain = 0
KST2 181125Z 17005KT 02/01 A30 RMK A01 T00220011  RH  093%=      5-min Rain = 0
KST2 181126Z 17005KT 02/01 A30 RMK A01 T00220011  RH  092%=      5-min Rain = 0
KST2 181127Z 17005KT 02/01 A30 RMK A01 T00220011  RH  092%=      5-min Rain = 0
KST2 181128Z 17006KT 02/01 A30 RMK A01 T00220011  RH  092%=      5-min Rain = 0
KST2 181129Z 17006KT 02/01 A30 RMK A01 T00220011  RH  092%=      5-min Rain = 0
KST2 181130Z 17006KT 02/01 A30 RMK A01 T00220011  RH  092%=      5-min Rain = 0
KST2 181131Z 17006KT 02/01 A30 RMK A01 T00220011  RH  093%=      5-min Rain = 0
KST2 181132Z 17006KT 02/01 A30 RMK A01 T00220011  RH  093%=      5-min Rain = 0
KST2 181133Z 17006KT 02/01 A30 RMK A01 T00220011  RH  093%=      5-min Rain = 0
KST2 181134Z 17006KT 02/01 A30 RMK A01 T00220011  RH  093%=      5-min Rain = 0
KST2 181135Z 18005KT 02/01 A30 RMK A01 T00220011  RH  093%=      5-min Rain = 0
KST2 181136Z 17005KT 02/01 A2999 RMK A01 T00220011  RH  093%=      5-min Rain = 0
KST2 181137Z 17005KT 02/01 A2999 RMK A01 T00220011  RH  093%=      5-min Rain = 0
KST2 181138Z 17004KT 02/01 A2999 RMK A01 T00210011  RH  093%=      5-min Rain = 0
KST2 181139Z 17004KT 02/01 A2999 RMK A01 T00210011  RH  093%=      5-min Rain = 0
KST2 181140Z 17004KT 02/01 A2999 RMK A01 T00210011  RH  093%=      5-min Rain = 0
KST2 181141Z 17004KT 02/01 A2999 RMK A01 T00210011  RH  093%=      5-min Rain = 0
KST2 181142Z 18004KT 02/01 A2999 RMK A01 T00210011  RH  093%=      5-min Rain = 0
KST2 181143Z 18004KT 02/01 A2999 RMK A01 T00210010  RH  093%=      5-min Rain = 0
KST2 181144Z 18004KT 02/01 A2999 RMK A01 T00210010  RH  093%=      5-min Rain = 0
KST2 181145Z 18004KT 02/01 A2999 RMK A01 T00210011  RH  093%=      5-min Rain = 0
KST2 181146Z 18004KT 02/01 A2999 RMK A01 T00210011  RH  093%=      5-min Rain = 0
KST2 181147Z 17004KT 02/01 A2999 RMK A01 T00210011  RH  093%=      5-min Rain = 0
KST2 181148Z 17004KT 02/01 A2999 RMK A01 T00210011  RH  093%=      5-min Rain = 0
KST2 181149Z 17004KT 02/01 A2999 RMK A01 T00210011  RH  093%=      5-min Rain = 0
KST2 181150Z 17004KT 02/01 A2999 RMK A01 T00210011  RH  093%=      5-min Rain = 0
KST2 181151Z 17004KT 02/01 A2999 RMK A01 T00210011  RH  093%=      5-min Rain = 0
KST2 181152Z 17005KT 02/01 A2999 RMK A01 T00210011  RH  093%=      5-min Rain = 0
KST2 181153Z 17005KT 02/01 A2999 RMK A01 T00210011  RH  093%=      5-min Rain = 0
KST2 181154Z 17005KT 02/01 A30 RMK A01 T00220012  RH  093%=      5-min Rain = 0
KST2 181155Z 17005KT 02/01 A30 RMK A01 T00210011  RH  093%=      5-min Rain = 0
KST2 181156Z 17005KT 02/01 A30 RMK A01 T00220012  RH  093%=      5-min Rain = 0
KST2 181157Z 17006KT 02/01 A30 RMK A01 T00220012  RH  093%=      5-min Rain = 0
KST2 181158Z 17006KT 02/01 A30 RMK A01 T00220011  RH  093%=      5-min Rain = 0
KST2 181159Z 18005KT 02/01 A30 RMK A01 T00220012  RH  093%=      5-min Rain = 0
KST2 181200Z 18005KT 02/01 A30 RMK A01 T00220012  RH  093%=      5-min Rain = 0
KST2 181201Z 17005KT 02/01 A30 RMK A01 T00220012  RH  093%=      5-min Rain = 0
KST2 181202Z 17005KT 02/01 A30 RMK A01 T00220012  RH  093%=      5-min Rain = 0
KST2 181203Z 17004KT 02/01 A30 RMK A01 T00220012  RH  093%=      5-min Rain = 0
KST2 181204Z 17004KT 02/01 A30 RMK A01 T00220012  RH  093%=      5-min Rain = 0
KST2 181205Z 17005KT 02/01 A30 RMK A01 T00220012  RH  093%=      5-min Rain = 0
KST2 181206Z 17005KT 02/01 A30 RMK A01 T00220012  RH  093%=      5-min Rain = 0
KST2 181207Z 17005KT 02/01 A30 RMK A01 T00230012  RH  093%=      5-min Rain = 0
KST2 181208Z 17005KT 02/01 A30 RMK A01 T00230012  RH  093%=      5-min Rain = 0
KST2 181209Z 17005KT 02/01 A30 RMK A01 T00230012  RH  093%=      5-min Rain = 0
KST2 181210Z 17005KT 02/01 A30 RMK A01 T00230012  RH  093%=      5-min Rain = 0
KST2 181211Z 17005KT 02/01 A30 RMK A01 T00220012  RH  093%=      5-min Rain = 0
KST2 181212Z 17004KT 02/01 A30 RMK A01 T00220011  RH  093%=      5-min Rain = 0
KST2 181213Z 16004KT 02/01 A30 RMK A01 T00220011  RH  093%=      5-min Rain = 0
KST2 181214Z 16004KT 02/01 A30 RMK A01 T00220012  RH  093%=      5-min Rain = 0
KST2 181215Z 16004KT 02/01 A30 RMK A01 T00220012  RH  093%=      5-min Rain = 0
KST2 181216Z 16004KT 02/01 A30 RMK A01 T00220012  RH  093%=      5-min Rain = 0
KST2 181217Z 16004KT 02/01 A30 RMK A01 T00220012  RH  093%=      5-min Rain = 0
KST2 181218Z 17004KT 02/01 A30 RMK A01 T00220012  RH  093%=      5-min Rain = 0
KST2 181219Z 17004KT 02/01 A30 RMK A01 T00220012  RH  093%=      5-min Rain = 0
KST2 181220Z 17004KT 02/01 A30 RMK A01 T00220012  RH  093%=      5-min Rain = 0
KST2 181221Z 17003KT 02/01 A30 RMK A01 T00220012  RH  093%=      5-min Rain = 0
KST2 181222Z 17003KT 02/01 A30 RMK A01 T00220012  RH  093%=      5-min Rain = 0
KST2 181223Z 17003KT 02/01 A30 RMK A01 T00230012  RH  093%=      5-min Rain = 0
KST2 181224Z 18003KT 02/01 A30 RMK A01 T00230012  RH  093%=      5-min Rain = 0
KST2 181225Z 18003KT 02/01 A30 RMK A01 T00230012  RH  093%=      5-min Rain = 0
KST2 181226Z 18003KT 02/01 A3001 RMK A01 T00230012  RH  093%=      5-min Rain = 0
KST2 181227Z 18003KT 02/01 A3001 RMK A01 T00230012  RH  093%=      5-min Rain = 0
KST2 181228Z 18003KT 02/01 A3001 RMK A01 T00240013  RH  093%=      5-min Rain = 0
KST2 181229Z 18003KT 02/01 A3001 RMK A01 T00240013  RH  092%=      5-min Rain = 0
KST2 181230Z 18004KT 02/01 A3001 RMK A01 T00240013  RH  092%=      5-min Rain = 0
KST2 181231Z 17004KT 02/01 A3001 RMK A01 T00240013  RH  092%=      5-min Rain = 0
KST2 181232Z 17004KT 02/01 A3001 RMK A01 T00240013  RH  092%=      5-min Rain = 0
KST2 181233Z 17003KT 02/01 A3001 RMK A01 T00240013  RH  092%=      5-min Rain = 0
KST2 181234Z 17003KT 02/01 A3001 RMK A01 T00240013  RH  092%=      5-min Rain = 0
KST2 181235Z 17003KT 03/01 A30 RMK A01 T00250013  RH  092%=      5-min Rain = 0
KST2 181236Z 17003KT 03/01 A30 RMK A01 T00250013  RH  092%=      5-min Rain = 0
KST2 181237Z 17003KT 03/01 A30 RMK A01 T00250013  RH  092%=      5-min Rain = 0
KST2 181238Z 17004KT 02/01 A30 RMK A01 T00240013  RH  092%=      5-min Rain = 0
KST2 181239Z 17004KT 02/01 A3001 RMK A01 T00240013  RH  092%=      5-min Rain = 0
KST2 181240Z 17003KT 03/01 A3001 RMK A01 T00250013  RH  092%=      5-min Rain = 0
KST2 181241Z 17003KT 02/01 A3001 RMK A01 T00240013  RH  092%=      5-min Rain = 0
KST2 181242Z 17003KT 03/01 A3001 RMK A01 T00250013  RH  092%=      5-min Rain = 0
KST2 181243Z 17003KT 03/01 A3001 RMK A01 T00250014  RH  092%=      5-min Rain = 0
KST2 181244Z 17003KT 03/01 A3001 RMK A01 T00250013  RH  092%=      5-min Rain = 0
KST2 181245Z 17003KT 03/01 A3001 RMK A01 T00250014  RH  092%=      5-min Rain = 0
KST2 181246Z 17003KT 03/01 A3001 RMK A01 T00260014  RH  092%=      5-min Rain = 0
KST2 181247Z 17003KT 03/01 A3001 RMK A01 T00250013  RH  092%=      5-min Rain = 0
KST2 181248Z 17003KT 03/01 A30 RMK A01 T00250013  RH  092%=      5-min Rain = 0
KST2 181249Z 17003KT 03/01 A30 RMK A01 T00250013  RH  092%=      5-min Rain = 0
KST2 181250Z 17003KT 03/01 A30 RMK A01 T00260014  RH  092%=      5-min Rain = 0
KST2 181251Z 17003KT 03/01 A30 RMK A01 T00250013  RH  092%=      5-min Rain = 0
KST2 181252Z 16003KT 03/01 A30 RMK A01 T00250013  RH  092%=      5-min Rain = 0
KST2 181253Z 16004KT 02/01 A3001 RMK A01 T00240012  RH  092%=      5-min Rain = 0
KST2 181254Z 16004KT 02/01 A3001 RMK A01 T00240011  RH  092%=      5-min Rain = 0
KST2 181255Z 16004KT 02/01 A3001 RMK A01 T00230011  RH  092%=      5-min Rain = 0
KST2 181256Z 16003KT 02/01 A3001 RMK A01 T00230010  RH  092%=      5-min Rain = 0
KST2 181257Z 17003KT 02/01 A3001 RMK A01 T00220010  RH  092%=      5-min Rain = 0
KST2 181258Z 17003KT 02/01 A3001 RMK A01 T00220010  RH  092%=      5-min Rain = 0
KST2 181259Z 17003KT 02/01 A3001 RMK A01 T00210010  RH  092%=      5-min Rain = 0
KST2 181300Z 17003KT 02/01 A3001 RMK A01 T00210010  RH  092%=      5-min Rain = 0
KST2 181301Z 18003KT 02/01 A3001 RMK A01 T00210010  RH  092%=      5-min Rain = 0
KST2 181302Z 18003KT 02/01 A3001 RMK A01 T00210011  RH  093%=      5-min Rain = 0
KST2 181303Z 18004KT 02/01 A3001 RMK A01 T00210011  RH  093%=      5-min Rain = 0
KST2 181304Z 18004KT 02/01 A3001 RMK A01 T00220011  RH  093%=      5-min Rain = 0
KST2 181305Z 18004KT 02/01 A3001 RMK A01 T00220012  RH  093%=      5-min Rain = 0
KST2 181306Z 18004KT 02/01 A3001 RMK A01 T00230012  RH  093%=      5-min Rain = 0
KST2 181307Z 18004KT 02/01 A3001 RMK A01 T00230012  RH  092%=      5-min Rain = 0
KST2 181308Z 18004KT 02/01 A3001 RMK A01 T00230011  RH  092%=      5-min Rain = 0
KST2 181309Z 18003KT 02/01 A3001 RMK A01 T00230012  RH  092%=      5-min Rain = 0
KST2 181310Z 18003KT 02/01 A3001 RMK A01 T00230012  RH  092%=      5-min Rain = 0
KST2 181311Z 19003KT 02/01 A3001 RMK A01 T00230012  RH  092%=      5-min Rain = 0
KST2 181312Z 19003KT 02/01 A3001 RMK A01 T00230012  RH  092%=      5-min Rain = 0
KST2 181313Z 20003KT 02/01 A3001 RMK A01 T00230012  RH  093%=      5-min Rain = 0
KST2 181314Z 21003KT 02/01 A3001 RMK A01 T00240013  RH  093%=      5-min Rain = 0
KST2 181315Z 21003KT 02/01 A3001 RMK A01 T00240014  RH  093%=      5-min Rain = 0
KST2 181316Z 20003KT 02/01 A3001 RMK A01 T00240014  RH  093%=      5-min Rain = 0
KST2 181317Z 20003KT 02/01 A3001 RMK A01 T00240013  RH  093%=      5-min Rain = 0
KST2 181318Z 20003KT 02/01 A3001 RMK A01 T00240013  RH  093%=      5-min Rain = 0
KST2 181319Z 19003KT 02/01 A3001 RMK A01 T00240013  RH  093%=      5-min Rain = 0
KST2 181320Z 18003KT 02/01 A3001 RMK A01 T00240014  RH  093%=      5-min Rain = 0
KST2 181321Z 18003KT 03/01 A3001 RMK A01 T00250014  RH  093%=      5-min Rain = 0
KST2 181322Z 18003KT 03/01 A3001 RMK A01 T00250014  RH  093%=      5-min Rain = 0
KST2 181323Z 18003KT 03/01 A3001 RMK A01 T00250014  RH  092%=      5-min Rain = 0
KST2 181324Z 19003KT 03/02 A3001 RMK A01 T00260015  RH  092%=      5-min Rain = 0
KST2 181325Z 19003KT 03/02 A3001 RMK A01 T00260015  RH  092%=      5-min Rain = 0
KST2 181326Z 19003KT 03/02 A3001 RMK A01 T00260015  RH  092%=      5-min Rain = 0
KST2 181327Z 19004KT 03/02 A3001 RMK A01 T00260015  RH  092%=      5-min Rain = 0
KST2 181328Z 19004KT 03/02 A3001 RMK A01 T00260015  RH  092%=      5-min Rain = 0
KST2 181329Z 19004KT 03/02 A3001 RMK A01 T00260015  RH  092%=      5-min Rain = 0
KST2 181330Z 19004KT 03/02 A3001 RMK A01 T00260015  RH  092%=      5-min Rain = 0
KST2 181331Z 20004KT 03/02 A3001 RMK A01 T00260015  RH  092%=      5-min Rain = 0
KST2 181332Z 20004KT 03/02 A3001 RMK A01 T00270015  RH  092%=      5-min Rain = 0
KST2 181333Z 21004KT 03/02 A3001 RMK A01 T00270015  RH  092%=      5-min Rain = 0
KST2 181334Z 21004KT 03/02 A3001 RMK A01 T00270015  RH  092%=      5-min Rain = 0
KST2 181335Z 21004KT 03/02 A3001 RMK A01 T00270016  RH  092%=      5-min Rain = 0
KST2 181336Z 21004KT 03/02 A3001 RMK A01 T00270016  RH  092%=      5-min Rain = 0
KST2 181337Z 21004KT 03/02 A3001 RMK A01 T00280016  RH  092%=      5-min Rain = 0
KST2 181338Z 21004KT 03/02 A3001 RMK A01 T00280016  RH  092%=      5-min Rain = 0
KST2 181339Z 21004KT 03/02 A3001 RMK A01 T00290017  RH  092%=      5-min Rain = 0
KST2 181340Z 21004KT 03/02 A3001 RMK A01 T00290018  RH  092%=      5-min Rain = 0
KST2 181341Z 22005KT 03/02 A3001 RMK A01 T00290018  RH  092%=      5-min Rain = 0
KST2 181342Z 22004KT 03/02 A3001 RMK A01 T00300018  RH  092%=      5-min Rain = 0
KST2 181343Z 23004KT 03/02 A3001 RMK A01 T00300018  RH  092%=      5-min Rain = 0
KST2 181344Z 23004KT 03/02 A3001 RMK A01 T00300018  RH  092%=      5-min Rain = 0
KST2 181345Z 23004KT 03/02 A3001 RMK A01 T00310019  RH  092%=      5-min Rain = 0
KST2 181346Z 23004KT 03/02 A3001 RMK A01 T00310019  RH  092%=      5-min Rain = 0
KST2 181347Z 23004KT 03/02 A3001 RMK A01 T00310019  RH  092%=      5-min Rain = 0
KST2 181348Z 23004KT 03/02 A3001 RMK A01 T00310019  RH  092%=      5-min Rain = 0
KST2 181349Z 22003KT 03/02 A3001 RMK A01 T00320019  RH  092%=      5-min Rain = 0
KST2 181350Z 21003KT 03/02 A3001 RMK A01 T00320020  RH  092%=      5-min Rain = 0
KST2 181351Z 22003KT 03/02 A3002 RMK A01 T00330020  RH  092%=      5-min Rain = 0
KST2 181352Z 22003KT 03/02 A3002 RMK A01 T00330021  RH  091%=      5-min Rain = 0
KST2 181353Z 21002KT 03/02 A3002 RMK A01 T00340021  RH  091%=      5-min Rain = 0
KST2 181354Z 22003KT 04/02 A3001 RMK A01 T00350021  RH  091%=      5-min Rain = 0
KST2 181355Z 23003KT 04/02 A3001 RMK A01 T00350021  RH  091%=      5-min Rain = 0
KST2 181356Z 23003KT 04/02 A3001 RMK A01 T00350022  RH  091%=      5-min Rain = 0
KST2 181357Z 23004KT 04/02 A3001 RMK A01 T00360022  RH  091%=      5-min Rain = 0
KST2 181358Z 23003KT 04/02 A3001 RMK A01 T00360023  RH  091%=      5-min Rain = 0
KST2 181359Z 22003KT 04/02 A3001 RMK A01 T00370024  RH  091%=      5-min Rain = 0
KST2 181400Z 22003KT 04/03 A3001 RMK A01 T00380025  RH  091%=      5-min Rain = 0
KST2 181401Z 21003KT 04/03 A3001 RMK A01 T00380025  RH  091%=      5-min Rain = 0
KST2 181402Z 21002KT 04/03 A3001 RMK A01 T00390025  RH  091%=      5-min Rain = 0
KST2 181403Z 19002KT 04/03 A3001 RMK A01 T00400026  RH  090%=      5-min Rain = 0
KST2 181404Z 19002KT 04/03 A3001 RMK A01 T00400026  RH  090%=      5-min Rain = 0
KST2 181405Z 19002KT 04/03 A3001 RMK A01 T00410025  RH  090%=      5-min Rain = 0
KST2 181406Z 19002KT 04/03 A3001 RMK A01 T00410025  RH  089%=      5-min Rain = 0
KST2 181407Z 20002KT 04/03 A3001 RMK A01 T00410025  RH  089%=      5-min Rain = 0
KST2 181408Z 20002KT 04/03 A3001 RMK A01 T00410025  RH  089%=      5-min Rain = 0
KST2 181409Z 18002KT 04/03 A3002 RMK A01 T00420025  RH  089%=      5-min Rain = 0
KST2 181410Z 18002KT 04/03 A3002 RMK A01 T00420026  RH  089%=      5-min Rain = 0
KST2 181411Z 17002KT 04/03 A3002 RMK A01 T00430027  RH  090%=      5-min Rain = 0
KST2 181412Z 17002KT 04/03 A3002 RMK A01 T00430027  RH  089%=      5-min Rain = 0
KST2 181413Z 17001KT 04/03 A3002 RMK A01 T00430027  RH  089%=      5-min Rain = 0
KST2 181414Z 17001KT 04/03 A3002 RMK A01 T00440028  RH  089%=      5-min Rain = 0
KST2 181415Z 18001KT 04/03 A3002 RMK A01 T00440028  RH  089%=      5-min Rain = 0
KST2 181416Z 20001KT 05/03 A3002 RMK A01 T00450028  RH  089%=      5-min Rain = 0
KST2 181417Z 21001KT 05/03 A3002 RMK A01 T00460029  RH  089%=      5-min Rain = 0
KST2 181418Z 21001KT 05/03 A3002 RMK A01 T00460029  RH  089%=      5-min Rain = 0
KST2 181419Z 21002KT 05/03 A3002 RMK A01 T00460030  RH  089%=      5-min Rain = 0
KST2 181420Z 22002KT 05/03 A3002 RMK A01 T00470030  RH  089%=      5-min Rain = 0
KST2 181421Z 23002KT 05/03 A3002 RMK A01 T00480031  RH  089%=      5-min Rain = 0
KST2 181422Z 22002KT 05/03 A3002 RMK A01 T00480032  RH  089%=      5-min Rain = 0
KST2 181423Z 20002KT 05/03 A3002 RMK A01 T00490032  RH  089%=      5-min Rain = 0
KST2 181424Z 20002KT 05/03 A3002 RMK A01 T00500033  RH  088%=      5-min Rain = 0
KST2 181425Z 22002KT 05/03 A3002 RMK A01 T00500032  RH  088%=      5-min Rain = 0
KST2 181426Z 21002KT 05/03 A3002 RMK A01 T00510032  RH  088%=      5-min Rain = 0
KST2 181427Z 20002KT 05/03 A3002 RMK A01 T00510033  RH  088%=      5-min Rain = 0
KST2 181428Z 21002KT 05/03 A3002 RMK A01 T00510033  RH  088%=      5-min Rain = 0
KST2 181429Z 21003KT 05/03 A3002 RMK A01 T00520033  RH  087%=      5-min Rain = 0
KST2 181430Z 21003KT 05/03 A3002 RMK A01 T00520033  RH  088%=      5-min Rain = 0
KST2 181431Z 20003KT 05/04 A3002 RMK A01 T00540035  RH  088%=      5-min Rain = 0
KST2 181432Z 18004KT 05/04 A3002 RMK A01 T00540035  RH  087%=      5-min Rain = 0
KST2 181433Z 18004KT 06/04 A3002 RMK A01 T00550036  RH  087%=      5-min Rain = 0
KST2 181434Z 17003KT 06/04 A3002 RMK A01 T00560036  RH  087%=      5-min Rain = 0
KST2 181435Z 19003KT 06/04 A3002 RMK A01 T00570037  RH  087%=      5-min Rain = 0
KST2 181436Z 20002KT 06/04 A3002 RMK A01 T00570036  RH  086%=      5-min Rain = 0
KST2 181437Z 21002KT 06/04 A3002 RMK A01 T00570036  RH  086%=      5-min Rain = 0
KST2 181438Z 19002KT 06/04 A3002 RMK A01 T00580037  RH  086%=      5-min Rain = 0
KST2 181439Z 19002KT 06/04 A3002 RMK A01 T00590037  RH  086%=      5-min Rain = 0
KST2 181440Z 20002KT 06/04 A3002 RMK A01 T00590037  RH  086%=      5-min Rain = 0
KST2 181441Z 20002KT 06/04 A3002 RMK A01 T00600038  RH  085%=      5-min Rain = 0
KST2 181442Z 19002KT 06/04 A3002 RMK A01 T00610039  RH  086%=      5-min Rain = 0
KST2 181443Z 19003KT 06/04 A3002 RMK A01 T00620040  RH  086%=      5-min Rain = 0
KST2 181444Z 20003KT 06/04 A3002 RMK A01 T00640042  RH  086%=      5-min Rain = 0
KST2 181445Z 19004KT 07/04 A3001 RMK A01 T00660041  RH  084%=      5-min Rain = 0
KST2 181446Z 19004KT 07/04 A3001 RMK A01 T00670041  RH  083%=      5-min Rain = 0
KST2 181447Z 18002KT 07/04 A3001 RMK A01 T00670041  RH  083%=      5-min Rain = 0
KST2 181448Z 19002KT 07/04 A3001 RMK A01 T00690043  RH  084%=      5-min Rain = 0
KST2 181449Z 18003KT 07/04 A3001 RMK A01 T00690043  RH  083%=      5-min Rain = 0
KST2 181450Z 18004KT 07/04 A3001 RMK A01 T00700044  RH  083%=      5-min Rain = 0
KST2 181451Z 17004KT 07/04 A3001 RMK A01 T00710044  RH  083%=      5-min Rain = 0
KST2 181452Z 17004KT 07/05 A3001 RMK A01 T00710046  RH  084%=      5-min Rain = 0
KST2 181453Z 18004KT 07/05 A3001 RMK A01 T00720046  RH  084%=      5-min Rain = 0
KST2 181454Z 19004KT 07/05 A3001 RMK A01 T00730046  RH  083%=      5-min Rain = 0
KST2 181455Z 19004KT 07/05 A3001 RMK A01 T00740046  RH  083%=      5-min Rain = 0
KST2 181456Z 18004KT 07/05 A3001 RMK A01 T00740046  RH  082%=      5-min Rain = 0
KST2 181457Z 19005KT 08/05 A3001 RMK A01 T00750046  RH  082%=      5-min Rain = 0
KST2 181458Z 19006KT 08/05 A3001 RMK A01 T00760048  RH  082%=      5-min Rain = 0
KST2 181459Z 19005KT 08/05 A3001 RMK A01 T00760046  RH  081%=      5-min Rain = 0
KST2 181500Z 19005KT 08/05 A3001 RMK A01 T00770047  RH  082%=      5-min Rain = 0
KST2 181501Z 19004KT 08/05 A3001 RMK A01 T00770047  RH  081%=      5-min Rain = 0
KST2 181502Z 18005KT 08/05 A3001 RMK A01 T00780048  RH  081%=      5-min Rain = 0
KST2 181503Z 18005KT 08/05 A3001 RMK A01 T00790049  RH  081%=      5-min Rain = 0
KST2 181504Z 18005KT 08/05 A3001 RMK A01 T00790048  RH  081%=      5-min Rain = 0
KST2 181505Z 18006KT 08/05 A3001 RMK A01 T00800049  RH  081%=      5-min Rain = 0
KST2 181506Z 18005KT 08/05 A3001 RMK A01 T00810049  RH  080%=      5-min Rain = 0
KST2 181507Z 19005KT 08/05 A3001 RMK A01 T00820049  RH  080%=      5-min Rain = 0
KST2 181508Z 19005KT 08/05 A3001 RMK A01 T00830049  RH  080%=      5-min Rain = 0
KST2 181509Z 19005KT 08/05 A3001 RMK A01 T00840049  RH  079%=      5-min Rain = 0
KST2 181510Z 19005KT 09/05 A3001 RMK A01 T00850051  RH  079%=      5-min Rain = 0
KST2 181511Z 18005KT 09/05 A3001 RMK A01 T00860051  RH  079%=      5-min Rain = 0
KST2 181512Z 18004KT 09/05 A3001 RMK A01 T00860051  RH  078%=      5-min Rain = 0
KST2 181513Z 18004KT 09/05 A3001 RMK A01 T00870052  RH  079%=      5-min Rain = 0
KST2 181514Z 19006KT 09/05 A3001 RMK A01 T00880051  RH  078%=      5-min Rain = 0
KST2 181515Z 19005KT 09/05 A30 RMK A01 T00880051  RH  077%=      5-min Rain = 0
KST2 181516Z 19005KT 09/05 A30 RMK A01 T00890051  RH  077%=      5-min Rain = 0
KST2 181517Z 18006KT 09/05 A3001 RMK A01 T00890052  RH  077%=      5-min Rain = 0
KST2 181518Z 18005KT 09/05 A3001 RMK A01 T00900051  RH  077%=      5-min Rain = 0
KST2 181519Z 19005KT 09/05 A3001 RMK A01 T00900051  RH  077%=      5-min Rain = 0
KST2 181520Z 20005KT 09/05 A3001 RMK A01 T00910052  RH  077%=      5-min Rain = 0
KST2 181521Z 19005KT 09/05 A3001 RMK A01 T00920053  RH  077%=      5-min Rain = 0
KST2 181522Z 19005KT 09/05 A3001 RMK A01 T00930054  RH  076%=      5-min Rain = 0
KST2 181523Z 19005KT 09/05 A3001 RMK A01 T00940054  RH  076%=      5-min Rain = 0
KST2 181524Z 21005KT 10/06 A3001 RMK A01 T00950055  RH  076%=      5-min Rain = 0
KST2 181525Z 20005KT 10/06 A3001 RMK A01 T00960055  RH  076%=      5-min Rain = 0
KST2 181526Z 21006KT 10/06 A3001 RMK A01 T00970056  RH  075%=      5-min Rain = 0
KST2 181527Z 21007KT 10/06 A3001 RMK A01 T00970055  RH  075%=      5-min Rain = 0
KST2 181528Z 21007KT 10/06 A3001 RMK A01 T00980055  RH  075%=      5-min Rain = 0
KST2 181529Z 20007KT 10/05 A30 RMK A01 T00980054  RH  074%=      5-min Rain = 0
KST2 181530Z 21006KT 10/06 A30 RMK A01 T00990055  RH  074%=      5-min Rain = 0
KST2 181531Z 20007KT 10/06 A30 RMK A01 T01010058  RH  075%=      5-min Rain = 0
KST2 181532Z 21006KT 10/06 A30 RMK A01 T01020059  RH  074%=      5-min Rain = 0
KST2 181533Z 20006KT 11/06 A30 RMK A01 T01050061  RH  074%=      5-min Rain = 0
KST2 181534Z 21007KT 11/06 A30 RMK A01 T01060060  RH  073%=      5-min Rain = 0
KST2 181535Z 21007KT 11/06 A30 RMK A01 T01060059  RH  072%=      5-min Rain = 0
KST2 181536Z 21007KT 11/06 A30 RMK A01 T01060059  RH  073%=      5-min Rain = 0
KST2 181537Z 21007KT 11/06 A30 RMK A01 T01070058  RH  072%=      5-min Rain = 0
KST2 181538Z 21007KT 11/06 A30 RMK A01 T01070058  RH  072%=      5-min Rain = 0
KST2 181539Z 22008KT 11/06 A30 RMK A01 T01070057  RH  071%=      5-min Rain = 0
KST2 181540Z 22007KT 11/06 A30 RMK A01 T01080058  RH  071%=      5-min Rain = 0
KST2 181541Z 21007KT 11/06 A30 RMK A01 T01090058  RH  071%=      5-min Rain = 0
KST2 181542Z 21006KT 11/06 A30 RMK A01 T01100059  RH  071%=      5-min Rain = 0
KST2 181543Z 21005KT 11/06 A3001 RMK A01 T01110060  RH  071%=      5-min Rain = 0
KST2 181544Z 21005KT 11/06 A3001 RMK A01 T01120060  RH  070%=      5-min Rain = 0
KST2 181545Z 21005KT 11/06 A3001 RMK A01 T01130060  RH  070%=      5-min Rain = 0
KST2 181546Z 22005KT 11/06 A3001 RMK A01 T01140062  RH  070%=      5-min Rain = 0
KST2 181547Z 22005KT 12/06 A3001 RMK A01 T01150062  RH  069%=      5-min Rain = 0
KST2 181548Z 22005KT 12/06 A3001 RMK A01 T01160061  RH  069%=      5-min Rain = 0
KST2 181549Z 22005KT 12/06 A3001 RMK A01 T01170061  RH  068%=      5-min Rain = 0
KST2 181550Z 22004KT 12/06 A3001 RMK A01 T01170060  RH  068%=      5-min Rain = 0
KST2 181551Z 22004KT 12/06 A3001 RMK A01 T01170060  RH  068%=      5-min Rain = 0
KST2 181552Z 24003KT 12/06 A3001 RMK A01 T01170061  RH  068%=      5-min Rain = 0
KST2 181553Z 23003KT 12/06 A3001 RMK A01 T01180061  RH  068%=      5-min Rain = 0
KST2 181554Z 23004KT 12/06 A3001 RMK A01 T01190063  RH  069%=      5-min Rain = 0
KST2 181555Z 23004KT 12/06 A3001 RMK A01 T01200062  RH  068%=      5-min Rain = 0
KST2 181556Z 22004KT 12/06 A3001 RMK A01 T01200062  RH  068%=      5-min Rain = 0
KST2 181557Z 22005KT 12/06 A3001 RMK A01 T01210062  RH  067%=      5-min Rain = 0
KST2 181558Z 22005KT 12/06 A3001 RMK A01 T01230063  RH  067%=      5-min Rain = 0
KST2 181559Z 23006KT 13/06 A3001 RMK A01 T01250064  RH  066%=      5-min Rain = 0
KST2 181600Z 22005KT 13/06 A3001 RMK A01 T01260062  RH  065%=      5-min Rain = 0
KST2 181601Z 22005KT 13/06 A3001 RMK A01 T01270063  RH  065%=      5-min Rain = 0
KST2 181602Z 21006KT 13/06 A3001 RMK A01 T01280062  RH  064%=      5-min Rain = 0
KST2 181603Z 21006KT 13/06 A3001 RMK A01 T01280061  RH  064%=      5-min Rain = 0
KST2 181604Z 21004KT 13/06 A3001 RMK A01 T01290062  RH  064%=      5-min Rain = 0
KST2 181605Z 22004KT 13/06 A3001 RMK A01 T01300061  RH  063%=      5-min Rain = 0
KST2 181606Z 23004KT 13/06 A30 RMK A01 T01300062  RH  063%=      5-min Rain = 0
KST2 181607Z 22004KT 13/06 A30 RMK A01 T01310063  RH  063%=      5-min Rain = 0
KST2 181608Z 23004KT 13/06 A30 RMK A01 T01320064  RH  063%=      5-min Rain = 0
KST2 181609Z 22004KT 13/06 A30 RMK A01 T01320063  RH  063%=      5-min Rain = 0
KST2 181610Z 21004KT 13/07 A30 RMK A01 T01340066  RH  064%=      5-min Rain = 0
KST2 181611Z 21003KT 14/07 A30 RMK A01 T01350065  RH  063%=      5-min Rain = 0
KST2 181612Z 21004KT 14/07 A30 RMK A01 T01370065  RH  062%=      5-min Rain = 0
KST2 181613Z 21004KT 14/07 A30 RMK A01 T01380067  RH  062%=      5-min Rain = 0
KST2 181614Z 20003KT 14/07 A30 RMK A01 T01390065  RH  061%=      5-min Rain = 0
KST2 181615Z 21003KT 14/07 A30 RMK A01 T01390065  RH  061%=      5-min Rain = 0
KST2 181616Z 21003KT 14/07 A30 RMK A01 T01400065  RH  061%=      5-min Rain = 0
KST2 181617Z 21005KT 14/07 A30 RMK A01 T01410066  RH  061%=      5-min Rain = 0
KST2 181618Z 21004KT 14/07 A30 RMK A01 T01420066  RH  060%=      5-min Rain = 0
KST2 181619Z 24005KT 14/07 A30 RMK A01 T01430067  RH  060%=      5-min Rain = 0
KST2 181620Z 24006KT 14/07 A30 RMK A01 T01440066  RH  060%=      5-min Rain = 0
KST2 181621Z 24005KT 15/07 A30 RMK A01 T01450067  RH  060%=      5-min Rain = 0
KST2 181622Z 24005KT 15/07 A30 RMK A01 T01460067  RH  059%=      5-min Rain = 0
KST2 181623Z 24006KT 15/07 A3001 RMK A01 T01470067  RH  059%=      5-min Rain = 0
KST2 181624Z 23007KT 15/07 A30 RMK A01 T01480067  RH  058%=      5-min Rain = 0
KST2 181625Z 23006KT 15/07 A3001 RMK A01 T01490066  RH  058%=      5-min Rain = 0
KST2 181626Z 23005KT 15/07 A3001 RMK A01 T01500067  RH  057%=      5-min Rain = 0
KST2 181627Z 23004KT 15/07 A3001 RMK A01 T01510066  RH  057%=      5-min Rain = 0
KST2 181628Z 23006KT 15/07 A3001 RMK A01 T01520066  RH  056%=      5-min Rain = 0
KST2 181629Z 24007KT 15/07 A3001 RMK A01 T01540065  RH  055%=      5-min Rain = 0
KST2 181630Z 25006KT 16/07 A3001 RMK A01 T01550066  RH  055%=      5-min Rain = 0
KST2 181631Z 23006KT 16/07 A3001 RMK A01 T01550066  RH  055%=      5-min Rain = 0
KST2 181632Z 25006KT 16/07 A3001 RMK A01 T01570069  RH  056%=      5-min Rain = 0
KST2 181633Z 26005KT 16/07 A3001 RMK A01 T01580070  RH  056%=      5-min Rain = 0
KST2 181634Z 23005KT 16/07 A3001 RMK A01 T01590066  RH  054%=      5-min Rain = 0
KST2 181635Z 25006KT 16/07 A3001 RMK A01 T01590068  RH  054%=      5-min Rain = 0
KST2 181636Z 26006KT 16/07 A3001 RMK A01 T01610068  RH  054%=      5-min Rain = 0
KST2 181637Z 26006KT 16/07 A3001 RMK A01 T01610066  RH  053%=      5-min Rain = 0
KST2 181638Z 25006KT 16/07 A3001 RMK A01 T01600068  RH  054%=      5-min Rain = 0
KST2 181639Z 25006KT 16/07 A3001 RMK A01 T01600067  RH  054%=      5-min Rain = 0
KST2 181640Z 25004KT 16/07 A3001 RMK A01 T01600065  RH  053%=      5-min Rain = 0
KST2 181641Z 25006KT 16/07 A3001 RMK A01 T01600065  RH  053%=      5-min Rain = 0
KST2 181642Z 24006KT 16/06 A3001 RMK A01 T01600063  RH  052%=      5-min Rain = 0
KST2 181643Z 23006KT 16/06 A3001 RMK A01 T01610061  RH  052%=      5-min Rain = 0
KST2 181644Z 23006KT 16/06 A3001 RMK A01 T01610062  RH  052%=      5-min Rain = 0
KST2 181645Z 23006KT 16/06 A3001 RMK A01 T01620062  RH  051%=      5-min Rain = 0
KST2 181646Z 23007KT 16/06 A3001 RMK A01 T01620061  RH  051%=      5-min Rain = 0
KST2 181647Z 23005KT 16/06 A3001 RMK A01 T01630063  RH  051%=      5-min Rain = 0
KST2 181648Z 22005KT 16/06 A3001 RMK A01 T01630060  RH  050%=      5-min Rain = 0
KST2 181649Z 22006KT 16/06 A30 RMK A01 T01640059  RH  050%=      5-min Rain = 0
KST2 181650Z 22006KT 16/06 A30 RMK A01 T01640059  RH  050%=      5-min Rain = 0
KST2 181651Z 22008KT 17/06 A30 RMK A01 T01650058  RH  049%=      5-min Rain = 0
KST2 181652Z 22006KT 17/06 A30 RMK A01 T01660058  RH  049%=      5-min Rain = 0
KST2 181653Z 23006KT 17/06 A30 RMK A01 T01670061  RH  050%=      5-min Rain = 0
KST2 181654Z 23007KT 17/06 A30 RMK A01 T01680060  RH  049%=      5-min Rain = 0
KST2 181655Z 21006KT 17/06 A30 RMK A01 T01680058  RH  048%=      5-min Rain = 0
KST2 181656Z 21005KT 17/06 A30 RMK A01 T01690058  RH  048%=      5-min Rain = 0
KST2 181657Z 22007KT 17/06 A30 RMK A01 T01690059  RH  048%=      5-min Rain = 0
KST2 181658Z 21007KT 17/06 A30 RMK A01 T01700056  RH  047%=      5-min Rain = 0
KST2 181659Z 22007KT 17/06 A30 RMK A01 T01710057  RH  047%=      5-min Rain = 0
KST2 181700Z 24008KT 17/06 A30 RMK A01 T01720058  RH  047%=      5-min Rain = 0
KST2 181701Z 24009KT 17/06 A30 RMK A01 T01730058  RH  047%=      5-min Rain = 0
KST2 181702Z 23010KT 17/06 A2999 RMK A01 T01740056  RH  046%=      5-min Rain = 0
KST2 181703Z 23010KT 17/05 A30 RMK A01 T01730054  RH  045%=      5-min Rain = 0
KST2 181704Z 24010KT 17/06 A30 RMK A01 T01730055  RH  046%=      5-min Rain = 0
KST2 181705Z 24010KT 17/05 A2999 RMK A01 T01730053  RH  045%=      5-min Rain = 0
KST2 181706Z 24010KT 17/05 A30 RMK A01 T01740053  RH  045%=      5-min Rain = 0
KST2 181707Z 24008KT 17/05 A30 RMK A01 T01740054  RH  045%=      5-min Rain = 0
KST2 181708Z 23009KT 17/06 A30 RMK A01 T01740055  RH  045%=      5-min Rain = 0
KST2 181709Z 24007KT 17/05 A30 RMK A01 T01740053  RH  045%=      5-min Rain = 0
KST2 181710Z 23008KT 18/06 A2999 RMK A01 T01750055  RH  045%=      5-min Rain = 0
KST2 181711Z 22008KT 18/06 A2999 RMK A01 T01750056  RH  045%=      5-min Rain = 0
KST2 181712Z 24010KT 18/05 A2999 RMK A01 T01770054  RH  045%=      5-min Rain = 0
KST2 181713Z 23008KT 18/05 A2999 RMK A01 T01760052  RH  044%=      5-min Rain = 0
KST2 181714Z 22008KT 18/05 A2999 RMK A01 T01750053  RH  044%=      5-min Rain = 0
KST2 181715Z 21008KT 18/05 A2999 RMK A01 T01750054  RH  045%=      5-min Rain = 0
KST2 181716Z 21009KT 18/05 A2999 RMK A01 T01770052  RH  044%=      5-min Rain = 0
KST2 181717Z 22008KT 18/05 A2999 RMK A01 T01770053  RH  044%=      5-min Rain = 0
KST2 181718Z 24009KT 18/06 A2999 RMK A01 T01780056  RH  045%=      5-min Rain = 0
KST2 181719Z 24008KT 18/05 A2999 RMK A01 T01790054  RH  044%=      5-min Rain = 0
KST2 181720Z 23009KT 18/05 A2999 RMK A01 T01800054  RH  044%=      5-min Rain = 0
KST2 181721Z 22007KT 18/05 A2999 RMK A01 T01790052  RH  043%=      5-min Rain = 0
KST2 181722Z 23008KT 18/05 A2999 RMK A01 T01790054  RH  044%=      5-min Rain = 0
KST2 181723Z 24008KT 18/05 A2999 RMK A01 T01800053  RH  043%=      5-min Rain = 0
KST2 181724Z 23008KT 18/06 A2999 RMK A01 T01810055  RH  044%=      5-min Rain = 0
KST2 181725Z 23008KT 18/06 A2999 RMK A01 T01810055  RH  043%=      5-min Rain = 0
KST2 181726Z 24008KT 18/05 A2999 RMK A01 T01820054  RH  043%=      5-min Rain = 0
KST2 181727Z 23008KT 18/05 A2999 RMK A01 T01820052  RH  042%=      5-min Rain = 0
KST2 181728Z 23009KT 18/05 A2999 RMK A01 T01820051  RH  042%=      5-min Rain = 0
KST2 181729Z 24008KT 18/05 A2999 RMK A01 T01810049  RH  042%=      5-min Rain = 0
KST2 181730Z 25009KT 18/05 A2999 RMK A01 T01800050  RH  042%=      5-min Rain = 0
KST2 181731Z 24007KT 18/05 A2999 RMK A01 T01800051  RH  043%=      5-min Rain = 0
KST2 181732Z 24007KT 18/05 A2999 RMK A01 T01810053  RH  043%=      5-min Rain = 0
KST2 181733Z 23008KT 18/05 A2999 RMK A01 T01810053  RH  043%=      5-min Rain = 0
KST2 181734Z 22009KT 18/05 A2999 RMK A01 T01830054  RH  043%=      5-min Rain = 0
KST2 181735Z 23008KT 18/05 A2999 RMK A01 T01830053  RH  042%=      5-min Rain = 0
KST2 181736Z 21008KT 18/05 A2999 RMK A01 T01830052  RH  042%=      5-min Rain = 0
KST2 181737Z 22009KT 18/05 A2999 RMK A01 T01830051  RH  042%=      5-min Rain = 0
KST2 181738Z 23008KT 18/05 A2998 RMK A01 T01830050  RH  042%=      5-min Rain = 0
KST2 181739Z 22009KT 18/05 A2998 RMK A01 T01830050  RH  042%=      5-min Rain = 0
KST2 181740Z 22008KT 18/05 A2998 RMK A01 T01830051  RH  042%=      5-min Rain = 0
KST2 181741Z 23009KT 18/05 A2998 RMK A01 T01830052  RH  042%=      5-min Rain = 0
KST2 181742Z 23009KT 18/05 A2998 RMK A01 T01840051  RH  042%=      5-min Rain = 0
KST2 181743Z 22007KT 18/05 A2998 RMK A01 T01830051  RH  042%=      5-min Rain = 0
KST2 181744Z 23007KT 18/05 A2998 RMK A01 T01830052  RH  042%=      5-min Rain = 0
KST2 181745Z 22010KT 18/05 A2998 RMK A01 T01840052  RH  042%=      5-min Rain = 0
KST2 181746Z 23009KT 19/05 A2998 RMK A01 T01850051  RH  041%=      5-min Rain = 0
KST2 181747Z 23009KT 18/05 A2998 RMK A01 T01840051  RH  041%=      5-min Rain = 0
KST2 181748Z 22009KT 19/05 A2998 RMK A01 T01850051  RH  041%=      5-min Rain = 0
KST2 181749Z 22011KT 19/05 A2998 RMK A01 T01850050  RH  041%=      5-min Rain = 0
KST2 181750Z 22010KT 19/05 A2998 RMK A01 T01860052  RH  041%=      5-min Rain = 0
KST2 181751Z 22009KT 19/05 A2998 RMK A01 T01860051  RH  041%=      5-min Rain = 0
KST2 181752Z 21008KT 19/05 A2998 RMK A01 T01860051  RH  041%=      5-min Rain = 0
KST2 181753Z 22007KT 19/05 A2997 RMK A01 T01860052  RH  041%=      5-min Rain = 0
KST2 181754Z 21008KT 19/05 A2997 RMK A01 T01870053  RH  042%=      5-min Rain = 0
KST2 181755Z 22010KT 19/05 A2997 RMK A01 T01890054  RH  041%=      5-min Rain = 0
KST2 181756Z 22008KT 19/05 A2997 RMK A01 T01900051  RH  040%=      5-min Rain = 0
KST2 181757Z 22007KT 19/05 A2997 RMK A01 T01890054  RH  041%=      5-min Rain = 0
KST2 181758Z 24011KT 19/06 A2997 RMK A01 T01910055  RH  041%=      5-min Rain = 0
KST2 181759Z 23010KT 19/05 A2997 RMK A01 T01910054  RH  040%=      5-min Rain = 0
KST2 181800Z 23010KT 19/05 A2997 RMK A01 T01910052  RH  040%=      5-min Rain = 0
KST2 181801Z 24009KT 19/06 A2997 RMK A01 T01900055  RH  041%=      5-min Rain = 0
KST2 181802Z 23009KT 19/05 A2996 RMK A01 T01910054  RH  041%=      5-min Rain = 0
KST2 181803Z 24011KT 19/05 A2996 RMK A01 T01910054  RH  041%=      5-min Rain = 0
KST2 181804Z 23011KT 19/05 A2996 RMK A01 T01920054  RH  040%=      5-min Rain = 0
KST2 181805Z 23010KT 19/05 A2996 RMK A01 T01920053  RH  040%=      5-min Rain = 0
KST2 181806Z 22012KT 19/05 A2996 RMK A01 T01930054  RH  040%=      5-min Rain = 0
KST2 181807Z 23010KT 19/05 A2996 RMK A01 T01930052  RH  040%=      5-min Rain = 0
KST2 181808Z 22008KT 19/05 A2996 RMK A01 T01940054  RH  040%=      5-min Rain = 0
KST2 181809Z 23009KT 19/05 A2996 RMK A01 T01940052  RH  039%=      5-min Rain = 0
KST2 181810Z 23007KT 19/05 A2996 RMK A01 T01940052  RH  039%=      5-min Rain = 0
KST2 181811Z 23010KT 20/05 A2996 RMK A01 T01950054  RH  040%=      5-min Rain = 0
KST2 181812Z 21012KT 20/05 A2996 RMK A01 T01950053  RH  039%=      5-min Rain = 0
KST2 181813Z 21011KT 20/05 A2996 RMK A01 T01950053  RH  039%=      5-min Rain = 0
KST2 181814Z 21009KT 20/05 A2996 RMK A01 T01960053  RH  039%=      5-min Rain = 0
KST2 181815Z 21007KT 20/05 A2996 RMK A01 T01950051  RH  039%=      5-min Rain = 0
KST2 181816Z 20011KT 20/05 A2995 RMK A01 T01950052  RH  039%=      5-min Rain = 0
KST2 181817Z 21009KT 20/05 A2995 RMK A01 T01950053  RH  039%=      5-min Rain = 0
KST2 181818Z 21009KT 20/05 A2995 RMK A01 T01970052  RH  039%=      5-min Rain = 0
KST2 181819Z 20007KT 20/05 A2995 RMK A01 T01970052  RH  039%=      5-min Rain = 0
KST2 181820Z 21009KT 20/05 A2995 RMK A01 T01970053  RH  039%=      5-min Rain = 0
KST2 181821Z 22010KT 20/05 A2995 RMK A01 T01980053  RH  038%=      5-min Rain = 0
KST2 181822Z 21010KT 20/05 A2995 RMK A01 T01980052  RH  038%=      5-min Rain = 0
KST2 181823Z 20009KT 20/05 A2994 RMK A01 T01990052  RH  038%=      5-min Rain = 0
KST2 181824Z 22009KT 20/05 A2994 RMK A01 T01990054  RH  038%=      5-min Rain = 0
KST2 181825Z 23008KT 20/05 A2994 RMK A01 T02000054  RH  038%=      5-min Rain = 0
KST2 181826Z 22010KT 20/05 A2994 RMK A01 T02000054  RH  038%=      5-min Rain = 0
KST2 181827Z 22008KT 20/05 A2994 RMK A01 T02000052  RH  038%=      5-min Rain = 0
KST2 181828Z 22009KT 20/05 A2994 RMK A01 T02000053  RH  038%=      5-min Rain = 0
KST2 181829Z 22008KT 20/05 A2994 RMK A01 T02000054  RH  038%=      5-min Rain = 0
KST2 181830Z 21012KT 20/05 A2994 RMK A01 T02010051  RH  037%=      5-min Rain = 0
KST2 181831Z 22013KT 20/05 A2994 RMK A01 T02010052  RH  037%=      5-min Rain = 0
KST2 181832Z 21010KT 20/05 A2994 RMK A01 T02020052  RH  037%=      5-min Rain = 0
KST2 181833Z 21011KT 20/05 A2994 RMK A01 T02020052  RH  038%=      5-min Rain = 0
KST2 181834Z 20010KT 20/05 A2993 RMK A01 T02020051  RH  037%=      5-min Rain = 0
KST2 181835Z 21010KT 20/05 A2993 RMK A01 T02020051  RH  037%=      5-min Rain = 0
KST2 181836Z 22011KT 20/05 A2993 RMK A01 T02030051  RH  037%=      5-min Rain = 0
KST2 181837Z 23014KT 20/05 A2993 RMK A01 T02030051  RH  037%=      5-min Rain = 0
KST2 181838Z 23012KT 20/05 A2993 RMK A01 T02030050  RH  037%=      5-min Rain = 0
KST2 181839Z 22010KT 20/05 A2993 RMK A01 T02020050  RH  037%=      5-min Rain = 0
KST2 181840Z 23010KT 20/05 A2993 RMK A01 T02020049  RH  037%=      5-min Rain = 0
KST2 181841Z 20010KT 20/05 A2993 RMK A01 T02020051  RH  037%=      5-min Rain = 0
KST2 181842Z 20011KT 20/05 A2992 RMK A01 T02020049  RH  037%=      5-min Rain = 0
KST2 181843Z 21010KT 20/05 A2992 RMK A01 T02040053  RH  037%=      5-min Rain = 0
KST2 181844Z 22011KT 21/05 A2992 RMK A01 T02050052  RH  037%=      5-min Rain = 0
KST2 181845Z 22012KT 21/05 A2992 RMK A01 T02060052  RH  036%=      5-min Rain = 0
KST2 181846Z 22009KT 21/05 A2992 RMK A01 T02060050  RH  036%=      5-min Rain = 0
KST2 181847Z 21009KT 21/05 A2992 RMK A01 T02060050  RH  036%=      5-min Rain = 0
KST2 181848Z 22010KT 21/05 A2992 RMK A01 T02050049  RH  036%=      5-min Rain = 0
KST2 181849Z 21010KT 21/05 A2992 RMK A01 T02050051  RH  036%=      5-min Rain = 0
KST2 181850Z 22011G16KT 21/05 A2992 RMK A01 T02060052  RH  037%=      5-min Rain = 0
KST2 181851Z 23012KT 21/05 A2992 RMK A01 T02070053  RH  036%=      5-min Rain = 0
KST2 181852Z 23012KT 21/05 A2992 RMK A01 T02080050  RH  036%=      5-min Rain = 0
KST2 181853Z 22011KT 21/05 A2992 RMK A01 T02070049  RH  036%=      5-min Rain = 0
KST2 181854Z 23009KT 21/05 A2992 RMK A01 T02060049  RH  036%=      5-min Rain = 0
KST2 181855Z 23010KT 21/05 A2991 RMK A01 T02060051  RH  036%=      5-min Rain = 0
KST2 181856Z 23009KT 21/05 A2991 RMK A01 T02070053  RH  036%=      5-min Rain = 0
KST2 181857Z 23008KT 21/05 A2991 RMK A01 T02080051  RH  036%=      5-min Rain = 0
KST2 181858Z 21011KT 21/05 A2991 RMK A01 T02080053  RH  036%=      5-min Rain = 0
KST2 181859Z 21010KT 21/05 A2991 RMK A01 T02090051  RH  036%=      5-min Rain = 0
KST2 181900Z 21009KT 21/05 A2991 RMK A01 T02080051  RH  036%=      5-min Rain = 0
KST2 181901Z 21012KT 21/05 A2991 RMK A01 T02080051  RH  036%=      5-min Rain = 0
KST2 181902Z 23010KT 21/05 A2991 RMK A01 T02090053  RH  036%=      5-min Rain = 0
KST2 181903Z 22009KT 21/05 A2991 RMK A01 T02100053  RH  036%=      5-min Rain = 0
KST2 181904Z 22010KT 21/05 A2991 RMK A01 T02110052  RH  035%=      5-min Rain = 0
KST2 181905Z 22012G17KT 21/05 A2991 RMK A01 T02110053  RH  035%=      5-min Rain = 0
KST2 181906Z 21012KT 21/05 A2991 RMK A01 T02120050  RH  035%=      5-min Rain = 0
KST2 181907Z 23009KT 21/05 A2991 RMK A01 T02110050  RH  035%=      5-min Rain = 0
KST2 181908Z 23010KT 21/05 A2991 RMK A01 T02100051  RH  035%=      5-min Rain = 0
KST2 181909Z 22008KT 21/05 A2991 RMK A01 T02110054  RH  036%=      5-min Rain = 0
KST2 181910Z 22010KT 21/05 A2991 RMK A01 T02120052  RH  035%=      5-min Rain = 0
KST2 181911Z 22009KT 21/05 A299 RMK A01 T02120052  RH  035%=      5-min Rain = 0
KST2 181912Z 22009KT 21/05 A299 RMK A01 T02120053  RH  035%=      5-min Rain = 0
KST2 181913Z 22007KT 21/05 A299 RMK A01 T02130051  RH  035%=      5-min Rain = 0
KST2 181914Z 23010KT 21/05 A299 RMK A01 T02130052  RH  035%=      5-min Rain = 0
KST2 181915Z 23010KT 21/05 A299 RMK A01 T02130052  RH  035%=      5-min Rain = 0
KST2 181916Z 22008KT 21/05 A299 RMK A01 T02130051  RH  035%=      5-min Rain = 0
KST2 181917Z 21007KT 21/05 A299 RMK A01 T02130050  RH  034%=      5-min Rain = 0
KST2 181918Z 20009KT 21/05 A299 RMK A01 T02130050  RH  034%=      5-min Rain = 0
KST2 181919Z 20009KT 21/05 A299 RMK A01 T02130050  RH  034%=      5-min Rain = 0
KST2 181920Z 22009KT 21/05 A299 RMK A01 T02130053  RH  035%=      5-min Rain = 0
KST2 181921Z 22011KT 22/05 A299 RMK A01 T02150054  RH  035%=      5-min Rain = 0
KST2 181922Z 22010KT 22/05 A299 RMK A01 T02150051  RH  034%=      5-min Rain = 0
KST2 181923Z 22007KT 21/05 A299 RMK A01 T02140049  RH  034%=      5-min Rain = 0
KST2 181924Z 21007KT 21/05 A299 RMK A01 T02140050  RH  034%=      5-min Rain = 0
KST2 181925Z 20008KT 21/05 A299 RMK A01 T02130049  RH  034%=      5-min Rain = 0
KST2 181926Z 23011KT 21/05 A299 RMK A01 T02140051  RH  034%=      5-min Rain = 0
KST2 181927Z 22007KT 22/05 A299 RMK A01 T02150050  RH  034%=      5-min Rain = 0
KST2 181928Z 23006KT 22/05 A299 RMK A01 T02150051  RH  034%=      5-min Rain = 0
KST2 181929Z 21005KT 22/05 A299 RMK A01 T02160050  RH  034%=      5-min Rain = 0
KST2 181930Z 22004KT 22/05 A299 RMK A01 T02160050  RH  034%=      5-min Rain = 0
KST2 181931Z 22008KT 22/05 A299 RMK A01 T02160050  RH  034%=      5-min Rain = 0
KST2 181932Z 21008KT 22/05 A299 RMK A01 T02160052  RH  034%=      5-min Rain = 0
KST2 181933Z 20007KT 22/05 A299 RMK A01 T02170052  RH  034%=      5-min Rain = 0
KST2 181934Z 21007KT 22/05 A2989 RMK A01 T02180052  RH  034%=      5-min Rain = 0
KST2 181935Z 20006KT 22/05 A2989 RMK A01 T02180050  RH  033%=      5-min Rain = 0
KST2 181936Z 20005KT 22/05 A2989 RMK A01 T02170050  RH  033%=      5-min Rain = 0
KST2 181937Z 19005KT 22/05 A2989 RMK A01 T02170050  RH  033%=      5-min Rain = 0
KST2 181938Z 22005KT 22/05 A2989 RMK A01 T02170052  RH  034%=      5-min Rain = 0
KST2 181939Z 24006KT 22/05 A2989 RMK A01 T02180051  RH  034%=      5-min Rain = 0
KST2 181940Z 25009KT 22/05 A2989 RMK A01 T02190052  RH  034%=      5-min Rain = 0
KST2 181941Z 24006KT 22/05 A2989 RMK A01 T02180049  RH  033%=      5-min Rain = 0
KST2 181942Z 23005KT 22/05 A2989 RMK A01 T02180050  RH  034%=      5-min Rain = 0
KST2 181943Z 23007KT 22/05 A2989 RMK A01 T02170050  RH  034%=      5-min Rain = 0
KST2 181944Z 22007KT 22/05 A2988 RMK A01 T02170050  RH  033%=      5-min Rain = 0
KST2 181945Z 23010KT 22/05 A2988 RMK A01 T02180052  RH  034%=      5-min Rain = 0
KST2 181946Z 23009KT 22/05 A2988 RMK A01 T02190050  RH  033%=      5-min Rain = 0
KST2 181947Z 23007KT 22/05 A2988 RMK A01 T02190049  RH  033%=      5-min Rain = 0
KST2 181948Z 23008KT 22/05 A2988 RMK A01 T02190049  RH  033%=      5-min Rain = 0
KST2 181949Z 22008KT 22/05 A2988 RMK A01 T02190048  RH  033%=      5-min Rain = 0
KST2 181950Z 23007KT 22/05 A2988 RMK A01 T02190048  RH  033%=      5-min Rain = 0
KST2 181951Z 23007KT 22/05 A2988 RMK A01 T02190046  RH  032%=      5-min Rain = 0
KST2 181952Z 24006KT 22/05 A2988 RMK A01 T02190047  RH  032%=      5-min Rain = 0
KST2 181953Z 23005KT 22/05 A2988 RMK A01 T02190047  RH  033%=      5-min Rain = 0
KST2 181954Z 25005KT 22/05 A2988 RMK A01 T02190049  RH  033%=      5-min Rain = 0
KST2 181955Z 24007KT 22/05 A2988 RMK A01 T02190049  RH  033%=      5-min Rain = 0
KST2 181956Z 22005KT 22/05 A2988 RMK A01 T02210051  RH  033%=      5-min Rain = 0
KST2 181957Z 24005KT 22/05 A2988 RMK A01 T02210049  RH  033%=      5-min Rain = 0
KST2 181958Z 25004KT 22/05 A2988 RMK A01 T02210049  RH  032%=      5-min Rain = 0
KST2 181959Z 23005KT 22/05 A2988 RMK A01 T02210049  RH  032%=      5-min Rain = 0
KST2 182000Z 22007KT 22/05 A2988 RMK A01 T02210048  RH  032%=      5-min Rain = 0
KST2 182001Z 24007KT 22/05 A2988 RMK A01 T02220049  RH  032%=      5-min Rain = 0
KST2 182002Z 26005KT 22/05 A2988 RMK A01 T02230047  RH  032%=      5-min Rain = 0
KST2 182003Z 25005KT 22/05 A2988 RMK A01 T02220048  RH  032%=      5-min Rain = 0
KST2 182004Z 23005KT 22/05 A2988 RMK A01 T02220048  RH  032%=      5-min Rain = 0
KST2 182005Z 23006KT 22/05 A2988 RMK A01 T02220048  RH  032%=      5-min Rain = 0
KST2 182006Z 22007KT 22/05 A2988 RMK A01 T02220048  RH  032%=      5-min Rain = 0
KST2 182007Z 22008KT 22/05 A2987 RMK A01 T02230046  RH  031%=      5-min Rain = 0
KST2 182008Z 22009KT 22/05 A2988 RMK A01 T02240047  RH  031%=      5-min Rain = 0
KST2 182009Z 21008KT 23/05 A2988 RMK A01 T02250045  RH  031%=      5-min Rain = 0
KST2 182010Z 22007KT 23/05 A2988 RMK A01 T02250046  RH  031%=      5-min Rain = 0
KST2 182011Z 21007KT 23/05 A2988 RMK A01 T02250048  RH  032%=      5-min Rain = 0
KST2 182012Z 20007KT 23/05 A2988 RMK A01 T02250047  RH  031%=      5-min Rain = 0
KST2 182013Z 20005KT 23/05 A2987 RMK A01 T02250048  RH  031%=      5-min Rain = 0
KST2 182014Z 19004KT 23/05 A2987 RMK A01 T02250046  RH  031%=      5-min Rain = 0
KST2 182015Z 18003KT 23/05 A2987 RMK A01 T02250047  RH  031%=      5-min Rain = 0
KST2 182016Z 18003KT 23/05 A2987 RMK A01 T02250049  RH  032%=      5-min Rain = 0
KST2 182017Z 19004KT 23/05 A2987 RMK A01 T02250049  RH  032%=      5-min Rain = 0
KST2 182018Z 19005KT 23/05 A2987 RMK A01 T02250051  RH  032%=      5-min Rain = 0
KST2 182019Z 22004KT 23/05 A2987 RMK A01 T02260050  RH  032%=      5-min Rain = 0
KST2 182020Z 22004KT 23/05 A2987 RMK A01 T02260048  RH  031%=      5-min Rain = 0
KST2 182021Z 21004KT 23/05 A2987 RMK A01 T02270047  RH  031%=      5-min Rain = 0
KST2 182022Z 21005KT 23/05 A2987 RMK A01 T02270047  RH  031%=      5-min Rain = 0
KST2 182023Z 24006KT 23/05 A2987 RMK A01 T02280050  RH  031%=      5-min Rain = 0
KST2 182024Z 25007KT 23/05 A2987 RMK A01 T02290051  RH  031%=      5-min Rain = 0
KST2 182025Z 26007KT 23/05 A2987 RMK A01 T02290049  RH  031%=      5-min Rain = 0
KST2 182026Z 26007KT 23/05 A2987 RMK A01 T02280053  RH  032%=      5-min Rain = 0
KST2 182027Z 26007KT 23/05 A2987 RMK A01 T02280050  RH  031%=      5-min Rain = 0
KST2 182028Z 24006KT 23/05 A2987 RMK A01 T02280053  RH  032%=      5-min Rain = 0
KST2 182029Z 24007KT 23/05 A2987 RMK A01 T02280050  RH  031%=      5-min Rain = 0
KST2 182030Z 22006KT 23/05 A2987 RMK A01 T02290049  RH  031%=      5-min Rain = 0
KST2 182031Z 22006KT 23/05 A2987 RMK A01 T02280048  RH  031%=      5-min Rain = 0
KST2 182032Z 24004KT 23/05 A2987 RMK A01 T02280047  RH  031%=      5-min Rain = 0
KST2 182033Z 24004KT 23/05 A2987 RMK A01 T02290046  RH  031%=      5-min Rain = 0
KST2 182034Z 25003KT 23/05 A2987 RMK A01 T02290046  RH  031%=      5-min Rain = 0
KST2 182035Z 25002KT 23/05 A2987 RMK A01 T02290046  RH  031%=      5-min Rain = 0
KST2 182036Z 22004KT 23/05 A2987 RMK A01 T02290048  RH  031%=      5-min Rain = 0
KST2 182037Z 23005KT 23/05 A2987 RMK A01 T02300049  RH  031%=      5-min Rain = 0
KST2 182038Z 23006KT 23/05 A2987 RMK A01 T02310048  RH  030%=      5-min Rain = 0
KST2 182039Z 23007KT 23/05 A2987 RMK A01 T02320046  RH  030%=      5-min Rain = 0
KST2 182040Z 24007KT 23/04 A2987 RMK A01 T02310044  RH  029%=      5-min Rain = 0
KST2 182041Z 24006KT 23/04 A2987 RMK A01 T02300041  RH  029%=      5-min Rain = 0
KST2 182042Z 24005KT 23/04 A2987 RMK A01 T02290044  RH  030%=      5-min Rain = 0
KST2 182043Z 21007KT 23/04 A2987 RMK A01 T02290043  RH  030%=      5-min Rain = 0
KST2 182044Z 21008KT 23/04 A2987 RMK A01 T02300044  RH  030%=      5-min Rain = 0
KST2 182045Z 22005KT 23/04 A2987 RMK A01 T02300042  RH  029%=      5-min Rain = 0
KST2 182046Z 23005KT 23/04 A2987 RMK A01 T02300042  RH  029%=      5-min Rain = 0
KST2 182047Z 22002KT 23/04 A2987 RMK A01 T02300040  RH  029%=      5-min Rain = 0
KST2 182048Z 19003KT 23/04 A2987 RMK A01 T02300041  RH  029%=      5-min Rain = 0
KST2 182049Z 18004KT 23/04 A2987 RMK A01 T02300044  RH  030%=      5-min Rain = 0
KST2 182050Z 19005KT 23/05 A2987 RMK A01 T02310046  RH  030%=      5-min Rain = 0
KST2 182051Z 20004KT 23/04 A2987 RMK A01 T02310041  RH  029%=      5-min Rain = 0
KST2 182052Z 20007KT 23/04 A2987 RMK A01 T02310043  RH  029%=      5-min Rain = 0
KST2 182053Z 20007KT 23/04 A2987 RMK A01 T02310044  RH  030%=      5-min Rain = 0
KST2 182054Z 20007KT 23/04 A2986 RMK A01 T02310042  RH  029%=      5-min Rain = 0
KST2 182055Z 21006KT 23/04 A2986 RMK A01 T02310043  RH  029%=      5-min Rain = 0
KST2 182056Z 22005KT 23/05 A2986 RMK A01 T02310045  RH  030%=      5-min Rain = 0
KST2 182057Z 21006KT 23/05 A2986 RMK A01 T02320045  RH  030%=      5-min Rain = 0
KST2 182058Z 21005KT 23/04 A2986 RMK A01 T02320044  RH  029%=      5-min Rain = 0
KST2 182059Z 22004KT 23/04 A2986 RMK A01 T02330042  RH  029%=      5-min Rain = 0
KST2 182100Z 21004KT 23/04 A2986 RMK A01 T02330043  RH  029%=      5-min Rain = 0
KST2 182101Z 20005KT 23/04 A2986 RMK A01 T02330043  RH  029%=      5-min Rain = 0
KST2 182102Z 23006KT 23/05 A2986 RMK A01 T02330045  RH  029%=      5-min Rain = 0
KST2 182103Z 22008KT 23/04 A2986 RMK A01 T02340044  RH  029%=      5-min Rain = 0
KST2 182104Z 21007KT 23/04 A2986 RMK A01 T02340044  RH  029%=      5-min Rain = 0
KST2 182105Z 21006KT 23/04 A2986 RMK A01 T02340041  RH  029%=      5-min Rain = 0
KST2 182106Z 20007KT 23/04 A2986 RMK A01 T02340043  RH  029%=      5-min Rain = 0
KST2 182107Z 21008KT 23/04 A2986 RMK A01 T02340041  RH  029%=      5-min Rain = 0
KST2 182108Z 22008KT 23/04 A2986 RMK A01 T02330040  RH  028%=      5-min Rain = 0
KST2 182109Z 22006KT 23/04 A2986 RMK A01 T02330038  RH  028%=      5-min Rain = 0
KST2 182110Z 23006KT 23/04 A2986 RMK A01 T02320038  RH  028%=      5-min Rain = 0
KST2 182111Z 23005KT 23/04 A2986 RMK A01 T02320036  RH  028%=      5-min Rain = 0
KST2 182112Z 23005KT 23/04 A2986 RMK A01 T02320036  RH  028%=      5-min Rain = 0
KST2 182113Z 24004KT 23/04 A2986 RMK A01 T02320039  RH  028%=      5-min Rain = 0
KST2 182114Z 23006KT 23/04 A2986 RMK A01 T02320042  RH  029%=      5-min Rain = 0
KST2 182115Z 23006KT 23/04 A2986 RMK A01 T02330040  RH  028%=      5-min Rain = 0
KST2 182116Z 23005KT 23/04 A2986 RMK A01 T02330039  RH  028%=      5-min Rain = 0
KST2 182117Z 24005KT 23/04 A2986 RMK A01 T02320040  RH  029%=      5-min Rain = 0
KST2 182118Z 21005KT 23/04 A2986 RMK A01 T02330041  RH  029%=      5-min Rain = 0
KST2 182119Z 19008KT 23/04 A2986 RMK A01 T02330042  RH  029%=      5-min Rain = 0
KST2 182120Z 20007KT 23/04 A2986 RMK A01 T02340042  RH  029%=      5-min Rain = 0
KST2 182121Z 19006KT 23/04 A2986 RMK A01 T02330041  RH  029%=      5-min Rain = 0
KST2 182122Z 19006KT 23/04 A2986 RMK A01 T02330044  RH  029%=      5-min Rain = 0
KST2 182123Z 21009KT 23/04 A2986 RMK A01 T02330043  RH  029%=      5-min Rain = 0
KST2 182124Z 22007KT 23/04 A2986 RMK A01 T02330043  RH  029%=      5-min Rain = 0
KST2 182125Z 22005KT 23/04 A2986 RMK A01 T02330040  RH  028%=      5-min Rain = 0
KST2 182126Z 23005KT 23/04 A2986 RMK A01 T02330040  RH  029%=      5-min Rain = 0
KST2 182127Z 22006KT 23/04 A2986 RMK A01 T02320040  RH  028%=      5-min Rain = 0
KST2 182128Z 21007KT 23/04 A2986 RMK A01 T02320043  RH  029%=      5-min Rain = 0
KST2 182129Z 22008KT 23/05 A2986 RMK A01 T02330045  RH  029%=      5-min Rain = 0
KST2 182130Z 22010KT 23/04 A2986 RMK A01 T02340044  RH  029%=      5-min Rain = 0
KST2 182131Z 22010KT 23/04 A2986 RMK A01 T02340042  RH  029%=      5-min Rain = 0
KST2 182132Z 22008KT 23/04 A2986 RMK A01 T02340041  RH  029%=      5-min Rain = 0
KST2 182133Z 21007KT 23/04 A2986 RMK A01 T02330042  RH  029%=      5-min Rain = 0
KST2 182134Z 21008KT 23/04 A2986 RMK A01 T02330041  RH  029%=      5-min Rain = 0
KST2 182135Z 21009KT 23/04 A2986 RMK A01 T02330042  RH  029%=      5-min Rain = 0
KST2 182136Z 22007KT 23/04 A2986 RMK A01 T02330042  RH  029%=      5-min Rain = 0
KST2 182137Z 22008KT 23/04 A2986 RMK A01 T02340043  RH  029%=      5-min Rain = 0
KST2 182138Z 23007KT 23/04 A2986 RMK A01 T02340043  RH  029%=      5-min Rain = 0
KST2 182139Z 22006KT 23/04 A2986 RMK A01 T02340042  RH  029%=      5-min Rain = 0
KST2 182140Z 23005KT 23/04 A2986 RMK A01 T02330041  RH  029%=      5-min Rain = 0
KST2 182141Z 23003KT 23/04 A2986 RMK A01 T02330041  RH  029%=      5-min Rain = 0
KST2 182142Z 23004KT 23/04 A2986 RMK A01 T02330041  RH  029%=      5-min Rain = 0
KST2 182143Z 24004KT 23/04 A2986 RMK A01 T02330041  RH  029%=      5-min Rain = 0
KST2 182144Z 24005KT 23/04 A2986 RMK A01 T02340041  RH  028%=      5-min Rain = 0
KST2 182145Z 24006KT 24/05 A2986 RMK A01 T02350045  RH  029%=      5-min Rain = 0
KST2 182146Z 23006KT 24/04 A2987 RMK A01 T02350043  RH  029%=      5-min Rain = 0
KST2 182147Z 22005KT 24/05 A2987 RMK A01 T02350045  RH  029%=      5-min Rain = 0
KST2 182148Z 22005KT 24/04 A2987 RMK A01 T02360044  RH  029%=      5-min Rain = 0
KST2 182149Z 22004KT 24/04 A2987 RMK A01 T02350042  RH  028%=      5-min Rain = 0
KST2 182150Z 22004KT 24/04 A2987 RMK A01 T02350043  RH  029%=      5-min Rain = 0
KST2 182151Z 24005KT 24/04 A2987 RMK A01 T02360042  RH  028%=      5-min Rain = 0
KST2 182152Z 22006KT 24/04 A2987 RMK A01 T02360044  RH  029%=      5-min Rain = 0
KST2 182153Z 23006KT 24/04 A2987 RMK A01 T02360043  RH  028%=      5-min Rain = 0
KST2 182154Z 24006KT 24/04 A2987 RMK A01 T02360043  RH  029%=      5-min Rain = 0
KST2 182155Z 24006KT 24/04 A2987 RMK A01 T02360042  RH  028%=      5-min Rain = 0
KST2 182156Z 24007KT 24/04 A2987 RMK A01 T02350044  RH  029%=      5-min Rain = 0
KST2 182157Z 24007KT 24/04 A2987 RMK A01 T02350043  RH  029%=      5-min Rain = 0
KST2 182158Z 24007KT 24/04 A2987 RMK A01 T02350043  RH  029%=      5-min Rain = 0
KST2 182159Z 24008KT 24/04 A2987 RMK A01 T02350043  RH  029%=      5-min Rain = 0
KST2 182200Z 24006KT 24/04 A2987 RMK A01 T02350040  RH  028%=      5-min Rain = 0
KST2 182201Z 24004KT 23/04 A2987 RMK A01 T02340042  RH  029%=      5-min Rain = 0
KST2 182202Z 24005KT 23/05 A2987 RMK A01 T02340045  RH  029%=      5-min Rain = 0
KST2 182203Z 23005KT 24/04 A2987 RMK A01 T02350043  RH  029%=      5-min Rain = 0
KST2 182204Z 23004KT 24/04 A2987 RMK A01 T02350044  RH  029%=      5-min Rain = 0
KST2 182205Z 22004KT 23/04 A2987 RMK A01 T02340041  RH  028%=      5-min Rain = 0
KST2 182206Z 23003KT 23/04 A2987 RMK A01 T02340041  RH  028%=      5-min Rain = 0
KST2 182207Z 24003KT 23/04 A2987 RMK A01 T02340041  RH  028%=      5-min Rain = 0
KST2 182208Z 23005KT 24/04 A2987 RMK A01 T02350043  RH  029%=      5-min Rain = 0
KST2 182209Z 21006KT 24/05 A2987 RMK A01 T02350045  RH  029%=      5-min Rain = 0
KST2 182210Z 20006KT 24/05 A2987 RMK A01 T02350046  RH  029%=      5-min Rain = 0
KST2 182211Z 20004KT 24/04 A2987 RMK A01 T02350043  RH  029%=      5-min Rain = 0
KST2 182212Z 19005KT 23/05 A2987 RMK A01 T02340045  RH  029%=      5-min Rain = 0
KST2 182213Z 19005KT 24/05 A2987 RMK A01 T02350045  RH  029%=      5-min Rain = 0
KST2 182214Z 19005KT 23/04 A2987 RMK A01 T02340044  RH  029%=      5-min Rain = 0
KST2 182215Z 20004KT 23/04 A2987 RMK A01 T02330042  RH  029%=      5-min Rain = 0
KST2 182216Z 19003KT 23/04 A2987 RMK A01 T02340043  RH  029%=      5-min Rain = 0
KST2 182217Z 19004KT 23/05 A2987 RMK A01 T02340047  RH  030%=      5-min Rain = 0
KST2 182218Z 20004KT 23/05 A2987 RMK A01 T02340048  RH  030%=      5-min Rain = 0
KST2 182219Z 20004KT 23/05 A2987 RMK A01 T02340047  RH  030%=      5-min Rain = 0
KST2 182220Z 20004KT 23/05 A2987 RMK A01 T02340047  RH  030%=      5-min Rain = 0
KST2 182221Z 21006KT 23/05 A2987 RMK A01 T02340045  RH  029%=      5-min Rain = 0
KST2 182222Z 20006KT 23/05 A2987 RMK A01 T02340046  RH  030%=      5-min Rain = 0
KST2 182223Z 20006KT 23/05 A2987 RMK A01 T02330046  RH  030%=      5-min Rain = 0
KST2 182224Z 20006KT 23/05 A2987 RMK A01 T02330046  RH  030%=      5-min Rain = 0
KST2 182225Z 19005KT 23/05 A2987 RMK A01 T02330045  RH  029%=      5-min Rain = 0
KST2 182226Z 19004KT 23/04 A2987 RMK A01 T02330044  RH  029%=      5-min Rain = 0
KST2 182227Z 17004KT 23/04 A2987 RMK A01 T02320044  RH  029%=      5-min Rain = 0
KST2 182228Z 18004KT 23/05 A2987 RMK A01 T02320048  RH  030%=      5-min Rain = 0
KST2 182229Z 20006KT 23/05 A2987 RMK A01 T02320048  RH  030%=      5-min Rain = 0
KST2 182230Z 21005KT 23/05 A2987 RMK A01 T02320047  RH  030%=      5-min Rain = 0
KST2 182231Z 22005KT 23/05 A2987 RMK A01 T02320048  RH  030%=      5-min Rain = 0
KST2 182232Z 22006KT 23/05 A2987 RMK A01 T02320047  RH  030%=      5-min Rain = 0
KST2 182233Z 21005KT 23/05 A2987 RMK A01 T02320047  RH  030%=      5-min Rain = 0
KST2 182234Z 22005KT 23/05 A2987 RMK A01 T02320050  RH  031%=      5-min Rain = 0
KST2 182235Z 22005KT 23/05 A2987 RMK A01 T02310049  RH  031%=      5-min Rain = 0
KST2 182236Z 22005KT 23/05 A2987 RMK A01 T02310048  RH  030%=      5-min Rain = 0
KST2 182237Z 22005KT 23/05 A2987 RMK A01 T02310049  RH  031%=      5-min Rain = 0
KST2 182238Z 22005KT 23/05 A2987 RMK A01 T02300050  RH  031%=      5-min Rain = 0
KST2 182239Z 21005KT 23/05 A2987 RMK A01 T02300050  RH  031%=      5-min Rain = 0
KST2 182240Z 21005KT 23/05 A2987 RMK A01 T02290051  RH  031%=      5-min Rain = 0
KST2 182241Z 21004KT 23/05 A2987 RMK A01 T02290051  RH  031%=      5-min Rain = 0
KST2 182242Z 21005KT 23/05 A2987 RMK A01 T02290052  RH  032%=      5-min Rain = 0
KST2 182243Z 21004KT 23/05 A2987 RMK A01 T02290052  RH  032%=      5-min Rain = 0
KST2 182244Z 20003KT 23/05 A2987 RMK A01 T02290052  RH  032%=      5-min Rain = 0
KST2 182245Z 20004KT 23/05 A2987 RMK A01 T02290052  RH  032%=      5-min Rain = 0
KST2 182246Z 20004KT 23/05 A2987 RMK A01 T02280052  RH  032%=      5-min Rain = 0
KST2 182247Z 19003KT 23/05 A2988 RMK A01 T02280051  RH  031%=      5-min Rain = 0
KST2 182248Z 19004KT 23/05 A2988 RMK A01 T02280049  RH  031%=      5-min Rain = 0
KST2 182249Z 18004KT 23/05 A2988 RMK A01 T02280051  RH  032%=      5-min Rain = 0
KST2 182250Z 18005KT 23/05 A2988 RMK A01 T02280050  RH  032%=      5-min Rain = 0
KST2 182251Z 19004KT 23/05 A2988 RMK A01 T02270048  RH  031%=      5-min Rain = 0
KST2 182252Z 19004KT 23/05 A2988 RMK A01 T02270046  RH  031%=      5-min Rain = 0
KST2 182253Z 20004KT 23/05 A2987 RMK A01 T02270048  RH  031%=      5-min Rain = 0
KST2 182254Z 20004KT 23/05 A2987 RMK A01 T02260049  RH  031%=      5-min Rain = 0
KST2 182255Z 20004KT 23/05 A2987 RMK A01 T02260050  RH  032%=      5-min Rain = 0
KST2 182256Z 20004KT 23/05 A2987 RMK A01 T02250048  RH  032%=      5-min Rain = 0
KST2 182257Z 19004KT 22/05 A2987 RMK A01 T02240049  RH  032%=      5-min Rain = 0
KST2 182258Z 19004KT 22/05 A2987 RMK A01 T02240050  RH  032%=      5-min Rain = 0
KST2 182259Z 19004KT 22/05 A2987 RMK A01 T02230051  RH  032%=      5-min Rain = 0
KST2 182300Z 19004KT 22/05 A2987 RMK A01 T02230051  RH  033%=      5-min Rain = 0
KST2 182301Z 19005KT 22/05 A2987 RMK A01 T02220051  RH  033%=      5-min Rain = 0
KST2 182302Z 19005KT 22/05 A2987 RMK A01 T02220052  RH  033%=      5-min Rain = 0
KST2 182303Z 19005KT 22/05 A2987 RMK A01 T02200053  RH  034%=      5-min Rain = 0
KST2 182304Z 19005KT 22/05 A2987 RMK A01 T02190054  RH  034%=      5-min Rain = 0
KST2 182305Z 19005KT 22/05 A2987 RMK A01 T02180053  RH  034%=      5-min Rain = 0
KST2 182306Z 19005KT 22/05 A2987 RMK A01 T02180052  RH  034%=      5-min Rain = 0
KST2 182307Z 19006KT 22/05 A2987 RMK A01 T02170052  RH  034%=      5-min Rain = 0
KST2 182308Z 20006KT 22/05 A2987 RMK A01 T02160051  RH  034%=      5-min Rain = 0
KST2 182309Z 20006KT 22/05 A2987 RMK A01 T02150052  RH  034%=      5-min Rain = 0
KST2 182310Z 20006KT 21/05 A2987 RMK A01 T02140052  RH  035%=      5-min Rain = 0
KST2 182311Z 20006KT 21/05 A2987 RMK A01 T02130052  RH  035%=      5-min Rain = 0
KST2 182312Z 20006KT 21/05 A2987 RMK A01 T02120052  RH  035%=      5-min Rain = 0
KST2 182313Z 20006KT 21/05 A2987 RMK A01 T02120053  RH  035%=      5-min Rain = 0
KST2 182314Z 20006KT 21/05 A2987 RMK A01 T02100053  RH  036%=      5-min Rain = 0
KST2 182315Z 19006KT 21/05 A2987 RMK A01 T02090052  RH  036%=      5-min Rain = 0
KST2 182316Z 19006KT 21/05 A2987 RMK A01 T02080053  RH  036%=      5-min Rain = 0
KST2 182317Z 20006KT 21/05 A2987 RMK A01 T02070053  RH  037%=      5-min Rain = 0
KST2 182318Z 20006KT 21/05 A2987 RMK A01 T02060053  RH  037%=      5-min Rain = 0
KST2 182319Z 20006KT 21/05 A2987 RMK A01 T02050052  RH  037%=      5-min Rain = 0
KST2 182320Z 20007KT 20/05 A2987 RMK A01 T02040052  RH  037%=      5-min Rain = 0
KST2 182321Z 20007KT 20/05 A2987 RMK A01 T02030052  RH  037%=      5-min Rain = 0
KST2 182322Z 20007KT 20/05 A2987 RMK A01 T02030052  RH  037%=      5-min Rain = 0
KST2 182323Z 20007KT 20/05 A2987 RMK A01 T02020051  RH  037%=      5-min Rain = 0
KST2 182324Z 20007KT 20/05 A2987 RMK A01 T02010051  RH  037%=      5-min Rain = 0
KST2 182325Z 20006KT 20/05 A2987 RMK A01 T02000050  RH  037%=      5-min Rain = 0
KST2 182326Z 19006KT 20/05 A2987 RMK A01 T01990051  RH  038%=      5-min Rain = 0
KST2 182327Z 20007KT 20/05 A2987 RMK A01 T01980050  RH  038%=      5-min Rain = 0
KST2 182328Z 20007KT 20/05 A2987 RMK A01 T01970050  RH  038%=      5-min Rain = 0
KST2 182329Z 20007KT 20/05 A2987 RMK A01 T01960050  RH  038%=      5-min Rain = 0
KST2 182330Z 20007KT 20/05 A2987 RMK A01 T01950050  RH  039%=      5-min Rain = 0
KST2 182331Z 20007KT 19/05 A2987 RMK A01 T01940050  RH  039%=      5-min Rain = 0
KST2 182332Z 20007KT 19/05 A2987 RMK A01 T01920050  RH  039%=      5-min Rain = 0
KST2 182333Z 20007KT 19/05 A2987 RMK A01 T01910050  RH  040%=      5-min Rain = 0
KST2 182334Z 20007KT 19/05 A2987 RMK A01 T01890051  RH  040%=      5-min Rain = 0
KST2 182335Z 20007KT 19/05 A2987 RMK A01 T01880050  RH  040%=      5-min Rain = 0
KST2 182336Z 20007KT 19/05 A2987 RMK A01 T01860050  RH  041%=      5-min Rain = 0
KST2 182337Z 20007KT 19/05 A2987 RMK A01 T01850050  RH  041%=      5-min Rain = 0
KST2 182338Z 20007KT 18/05 A2987 RMK A01 T01840049  RH  041%=      5-min Rain = 0
KST2 182339Z 20007KT 18/05 A2987 RMK A01 T01830049  RH  041%=      5-min Rain = 0
KST2 182340Z 20006KT 18/05 A2987 RMK A01 T01820048  RH  041%=      5-min Rain = 0
KST2 182341Z 20006KT 18/05 A2987 RMK A01 T01820048  RH  041%=      5-min Rain = 0
KST2 182342Z 20006KT 18/05 A2987 RMK A01 T01810048  RH  041%=      5-min Rain = 0
KST2 182343Z 20006KT 18/05 A2987 RMK A01 T01810048  RH  041%=      5-min Rain = 0
KST2 182344Z 20006KT 18/05 A2987 RMK A01 T01800048  RH  042%=      5-min Rain = 0
KST2 182345Z 20007KT 18/05 A2987 RMK A01 T01800048  RH  042%=      5-min Rain = 0
KST2 182346Z 21007KT 18/05 A2987 RMK A01 T01790048  RH  042%=      5-min Rain = 0
KST2 182347Z 21007KT 18/05 A2988 RMK A01 T01790048  RH  042%=      5-min Rain = 0
KST2 182348Z 21007KT 18/05 A2988 RMK A01 T01790048  RH  042%=      5-min Rain = 0
KST2 182349Z 20007KT 18/05 A2988 RMK A01 T01780048  RH  042%=      5-min Rain = 0
KST2 182350Z 20007KT 18/05 A2988 RMK A01 T01780049  RH  043%=      5-min Rain = 0
KST2 182351Z 21007KT 18/05 A2988 RMK A01 T01770049  RH  043%=      5-min Rain = 0
KST2 182352Z 21007KT 18/05 A2988 RMK A01 T01760048  RH  043%=      5-min Rain = 0
KST2 182353Z 21007KT 18/05 A2988 RMK A01 T01760049  RH  043%=      5-min Rain = 0
KST2 182354Z 20007KT 18/05 A2988 RMK A01 T01750049  RH  043%=      5-min Rain = 0
KST2 182355Z 20007KT 17/05 A2988 RMK A01 T01740049  RH  044%=      5-min Rain = 0
KST2 182356Z 20007KT 17/05 A2988 RMK A01 T01730049  RH  044%=      5-min Rain = 0
KST2 182357Z 20007KT 17/05 A2988 RMK A01 T01730048  RH  044%=      5-min Rain = 0
KST2 182358Z 20007KT 17/05 A2988 RMK A01 T01720048  RH  044%=      5-min Rain = 0
KST2 182359Z 20007KT 17/05 A2988 RMK A01 T01710048  RH  044%=      5-min Rain = 0
KST2 190000Z 20008KT 17/05 A2988 RMK A01 T01710049  RH  044%=      5-min Rain = 0
KST2 190001Z 20008KT 17/05 A2988 RMK A01 T01700048  RH  044%=      5-min Rain = 0
KST2 190002Z 20008KT 17/05 A2988 RMK A01 T01690048  RH  045%=      5-min Rain = 0
KST2 190003Z 20008KT 17/05 A2988 RMK A01 T01680049  RH  045%=      5-min Rain = 0
KST2 190004Z 20007KT 17/05 A2988 RMK A01 T01680049  RH  045%=      5-min Rain = 0
KST2 190005Z 19007KT 17/05 A2988 RMK A01 T01670048  RH  045%=      5-min Rain = 0
KST2 190006Z 19006KT 17/05 A2988 RMK A01 T01660049  RH  046%=      5-min Rain = 0
KST2 190007Z 19005KT 17/05 A2988 RMK A01 T01660051  RH  047%=      5-min Rain = 0
KST2 190008Z 20006KT 16/05 A2988 RMK A01 T01640050  RH  047%=      5-min Rain = 0
KST2 190009Z 20006KT 16/05 A2988 RMK A01 T01630048  RH  046%=      5-min Rain = 0
KST2 190010Z 19006KT 16/05 A2988 RMK A01 T01620047  RH  046%=      5-min Rain = 0
KST2 190011Z 19005KT 16/05 A2988 RMK A01 T01620048  RH  047%=      5-min Rain = 0
KST2 190012Z 19005KT 16/05 A2988 RMK A01 T01610049  RH  047%=      5-min Rain = 0
KST2 190013Z 20006KT 16/05 A2988 RMK A01 T01600049  RH  048%=      5-min Rain = 0
KST2 190014Z 20006KT 16/05 A2988 RMK A01 T01600048  RH  048%=      5-min Rain = 0
KST2 190015Z 20006KT 16/05 A2988 RMK A01 T01590049  RH  048%=      5-min Rain = 0
KST2 190016Z 20006KT 16/05 A2988 RMK A01 T01580049  RH  048%=      5-min Rain = 0
KST2 190017Z 20007KT 16/05 A2988 RMK A01 T01570049  RH  048%=      5-min Rain = 0
KST2 190018Z 20006KT 16/05 A2988 RMK A01 T01570049  RH  049%=      5-min Rain = 0
KST2 190019Z 20006KT 16/05 A2988 RMK A01 T01560049  RH  049%=      5-min Rain = 0
KST2 190020Z 20006KT 16/05 A2989 RMK A01 T01550049  RH  049%=      5-min Rain = 0
KST2 190021Z 21006KT 15/05 A2989 RMK A01 T01540048  RH  049%=      5-min Rain = 0
KST2 190022Z 21006KT 15/05 A2989 RMK A01 T01540048  RH  049%=      5-min Rain = 0
KST2 190023Z 21006KT 15/05 A2989 RMK A01 T01540047  RH  049%=      5-min Rain = 0
KST2 190024Z 21006KT 15/05 A2989 RMK A01 T01530047  RH  049%=      5-min Rain = 0
KST2 190025Z 21005KT 15/05 A2989 RMK A01 T01530047  RH  049%=      5-min Rain = 0
KST2 190026Z 21005KT 15/05 A2989 RMK A01 T01530046  RH  049%=      5-min Rain = 0
KST2 190027Z 21005KT 15/05 A2989 RMK A01 T01530045  RH  048%=      5-min Rain = 0
KST2 190028Z 21005KT 15/05 A2989 RMK A01 T01540045  RH  048%=      5-min Rain = 0
KST2 190029Z 22005KT 16/05 A2989 RMK A01 T01550045  RH  048%=      5-min Rain = 0
KST2 190030Z 22005KT 16/05 A2989 RMK A01 T01550046  RH  048%=      5-min Rain = 0
KST2 190031Z 22004KT 16/05 A2989 RMK A01 T01560046  RH  048%=      5-min Rain = 0
KST2 190032Z 22004KT 16/05 A2989 RMK A01 T01560045  RH  048%=      5-min Rain = 0
KST2 190033Z 22005KT 16/05 A2989 RMK A01 T01560045  RH  048%=      5-min Rain = 0
KST2 190034Z 22005KT 16/05 A2989 RMK A01 T01560046  RH  048%=      5-min Rain = 0
KST2 190035Z 22005KT 16/05 A2989 RMK A01 T01560046  RH  048%=      5-min Rain = 0
KST2 190036Z 22005KT 16/05 A2989 RMK A01 T01560046  RH  048%=      5-min Rain = 0
KST2 190037Z 22005KT 16/05 A2989 RMK A01 T01560046  RH  048%=      5-min Rain = 0
KST2 190038Z 22005KT 16/05 A2989 RMK A01 T01560046  RH  048%=      5-min Rain = 0
KST2 190039Z 22005KT 16/05 A299 RMK A01 T01550046  RH  048%=      5-min Rain = 0
KST2 190040Z 22005KT 16/05 A299 RMK A01 T01550046  RH  048%=      5-min Rain = 0
KST2 190041Z 21005KT 15/05 A299 RMK A01 T01540047  RH  049%=      5-min Rain = 0
KST2 190042Z 22005KT 15/05 A299 RMK A01 T01540047  RH  049%=      5-min Rain = 0
KST2 190043Z 22005KT 15/05 A299 RMK A01 T01530047  RH  049%=      5-min Rain = 0
KST2 190044Z 22004KT 15/05 A299 RMK A01 T01530047  RH  049%=      5-min Rain = 0
KST2 190045Z 22004KT 15/05 A299 RMK A01 T01520047  RH  049%=      5-min Rain = 0
KST2 190046Z 22004KT 15/05 A299 RMK A01 T01520047  RH  049%=      5-min Rain = 0
KST2 190047Z 22004KT 15/05 A299 RMK A01 T01520046  RH  049%=      5-min Rain = 0
KST2 190048Z 22004KT 15/05 A299 RMK A01 T01510046  RH  050%=      5-min Rain = 0
KST2 190049Z 22004KT 15/05 A299 RMK A01 T01500046  RH  050%=      5-min Rain = 0
KST2 190050Z 22004KT 15/05 A299 RMK A01 T01500046  RH  050%=      5-min Rain = 0
KST2 190051Z 22004KT 15/05 A299 RMK A01 T01490047  RH  050%=      5-min Rain = 0
KST2 190052Z 22004KT 15/05 A299 RMK A01 T01490048  RH  051%=      5-min Rain = 0
KST2 190053Z 22004KT 15/05 A299 RMK A01 T01480048  RH  051%=      5-min Rain = 0
KST2 190054Z 22004KT 15/05 A299 RMK A01 T01480048  RH  051%=      5-min Rain = 0
KST2 190055Z 22004KT 15/05 A299 RMK A01 T01470048  RH  051%=      5-min Rain = 0
KST2 190056Z 22004KT 15/05 A299 RMK A01 T01470048  RH  051%=      5-min Rain = 0
KST2 190057Z 22004KT 15/05 A299 RMK A01 T01460048  RH  052%=      5-min Rain = 0
KST2 190058Z 22004KT 15/05 A299 RMK A01 T01460048  RH  052%=      5-min Rain = 0
KST2 190059Z 22004KT 15/05 A299 RMK A01 T01460048  RH  052%=      5-min Rain = 0
KST2 190100Z 22004KT 15/05 A299 RMK A01 T01450048  RH  052%=      5-min Rain = 0
KST2 190101Z 22003KT 15/05 A299 RMK A01 T01450048  RH  052%=      5-min Rain = 0
KST2 190102Z 22004KT 15/05 A299 RMK A01 T01450048  RH  052%=      5-min Rain = 0
KST2 190103Z 23003KT 15/05 A299 RMK A01 T01450048  RH  052%=      5-min Rain = 0
KST2 190104Z 22003KT 14/05 A299 RMK A01 T01440048  RH  052%=      5-min Rain = 0
KST2 190105Z 23003KT 14/05 A299 RMK A01 T01440048  RH  052%=      5-min Rain = 0
KST2 190106Z 23003KT 14/05 A299 RMK A01 T01440047  RH  052%=      5-min Rain = 0
KST2 190107Z 23002KT 14/05 A299 RMK A01 T01440048  RH  053%=      5-min Rain = 0
KST2 190108Z 23002KT 14/05 A299 RMK A01 T01440049  RH  053%=      5-min Rain = 0
KST2 190109Z 24002KT 14/05 A299 RMK A01 T01430049  RH  053%=      5-min Rain = 0
KST2 190110Z 24002KT 14/05 A299 RMK A01 T01430050  RH  053%=      5-min Rain = 0
KST2 190111Z 24002KT 14/05 A299 RMK A01 T01430050  RH  054%=      5-min Rain = 0
KST2 190112Z 24002KT 14/05 A299 RMK A01 T01420049  RH  054%=      5-min Rain = 0
KST2 190113Z 25002KT 14/05 A299 RMK A01 T01420049  RH  054%=      5-min Rain = 0
KST2 190114Z 25002KT 14/05 A2991 RMK A01 T01410049  RH  054%=      5-min Rain = 0
KST2 190115Z 26002KT 14/05 A2991 RMK A01 T01410049  RH  054%=      5-min Rain = 0
KST2 190116Z 26001KT 14/05 A2991 RMK A01 T01410049  RH  054%=      5-min Rain = 0
KST2 190117Z 27001KT 14/05 A2991 RMK A01 T01410049  RH  054%=      5-min Rain = 0
KST2 190118Z 27001KT 14/05 A2991 RMK A01 T01410049  RH  054%=      5-min Rain = 0
KST2 190119Z 27001KT 14/05 A2991 RMK A01 T01410049  RH  054%=      5-min Rain = 0
KST2 190120Z 27001KT 14/05 A2991 RMK A01 T01410049  RH  054%=      5-min Rain = 0
KST2 190121Z 27001KT 14/05 A2991 RMK A01 T01410049  RH  054%=      5-min Rain = 0
KST2 190122Z 28001KT 14/05 A2991 RMK A01 T01410048  RH  054%=      5-min Rain = 0
KST2 190123Z 28001KT 14/05 A2991 RMK A01 T01420048  RH  053%=      5-min Rain = 0
KST2 190124Z 28001KT 14/05 A2991 RMK A01 T01420048  RH  053%=      5-min Rain = 0
KST2 190125Z 28000KT 14/05 A2991 RMK A01 T01430048  RH  053%=      5-min Rain = 0
KST2 190126Z 28000KT 14/05 A2991 RMK A01 T01440049  RH  053%=      5-min Rain = 0
KST2 190127Z 27000KT 14/05 A2991 RMK A01 T01440048  RH  052%=      5-min Rain = 0
KST2 190128Z 24000KT 15/05 A2991 RMK A01 T01450049  RH  052%=      5-min Rain = 0
KST2 190129Z 25001KT 15/05 A2991 RMK A01 T01450049  RH  052%=      5-min Rain = 0
KST2 190130Z 24000KT 14/05 A2991 RMK A01 T01440048  RH  052%=      5-min Rain = 0
KST2 190131Z 00000KT 14/05 A2991 RMK A01 T01430048  RH  053%=      5-min Rain = 0
KST2 190132Z 00000KT 14/05 A2991 RMK A01 T01430047  RH  052%=      5-min Rain = 0
KST2 190133Z 00000KT 14/05 A2991 RMK A01 T01440047  RH  052%=      5-min Rain = 0
KST2 190134Z 00000KT 15/05 A2991 RMK A01 T01450048  RH  052%=      5-min Rain = 0
KST2 190135Z 01000KT 14/05 A2991 RMK A01 T01440049  RH  053%=      5-min Rain = 0
KST2 190136Z 01001KT 14/05 A2991 RMK A01 T01390047  RH  054%=      5-min Rain = 0
KST2 190137Z 01000KT 13/05 A2991 RMK A01 T01330045  RH  055%=      5-min Rain = 0
KST2 190138Z 01000KT 13/04 A2991 RMK A01 T01280044  RH  057%=      5-min Rain = 0
KST2 190139Z 01000KT 13/04 A2991 RMK A01 T01260044  RH  057%=      5-min Rain = 0
KST2 190140Z 00000KT 13/04 A2992 RMK A01 T01250044  RH  058%=      5-min Rain = 0
KST2 190141Z 00000KT 13/05 A2992 RMK A01 T01260046  RH  058%=      5-min Rain = 0
KST2 190142Z 00000KT 13/05 A2992 RMK A01 T01290047  RH  057%=      5-min Rain = 0
KST2 190143Z 00000KT 13/05 A2992 RMK A01 T01300047  RH  057%=      5-min Rain = 0
KST2 190144Z 00000KT 13/05 A2992 RMK A01 T01310047  RH  056%=      5-min Rain = 0
KST2 190145Z 00000KT 13/05 A2992 RMK A01 T01330047  RH  056%=      5-min Rain = 0
KST2 190146Z 01001KT 13/05 A2992 RMK A01 T01310045  RH  056%=      5-min Rain = 0
KST2 190147Z 01001KT 13/05 A2992 RMK A01 T01290045  RH  057%=      5-min Rain = 0
KST2 190148Z 01002KT 13/05 A2992 RMK A01 T01270045  RH  057%=      5-min Rain = 0
KST2 190149Z 01003KT 12/04 A2992 RMK A01 T01230044  RH  058%=      5-min Rain = 0
KST2 190150Z 02003KT 12/04 A2992 RMK A01 T01200044  RH  059%=      5-min Rain = 0
KST2 190151Z 02003KT 12/04 A2992 RMK A01 T01180044  RH  060%=      5-min Rain = 0
KST2 190152Z 02003KT 12/04 A2992 RMK A01 T01160044  RH  061%=      5-min Rain = 0
KST2 190153Z 02003KT 12/04 A2992 RMK A01 T01160044  RH  062%=      5-min Rain = 0
KST2 190154Z 02003KT 12/04 A2992 RMK A01 T01150044  RH  062%=      5-min Rain = 0
KST2 190155Z 02003KT 11/05 A2992 RMK A01 T01140045  RH  062%=      5-min Rain = 0
KST2 190156Z 02003KT 11/04 A2992 RMK A01 T01130044  RH  062%=      5-min Rain = 0
KST2 190157Z 03003KT 11/05 A2993 RMK A01 T01130045  RH  063%=      5-min Rain = 0
KST2 190158Z 04003KT 11/05 A2993 RMK A01 T01130045  RH  063%=      5-min Rain = 0
KST2 190159Z 05003KT 11/05 A2993 RMK A01 T01130045  RH  063%=      5-min Rain = 0
KST2 190200Z 05003KT 11/05 A2993 RMK A01 T01130046  RH  063%=      5-min Rain = 0
KST2 190201Z 05003KT 11/05 A2993 RMK A01 T01130045  RH  063%=      5-min Rain = 0
KST2 190202Z 05003KT 11/05 A2993 RMK A01 T01130046  RH  063%=      5-min Rain = 0
KST2 190203Z 05005KT 11/05 A2993 RMK A01 T01120046  RH  064%=      5-min Rain = 0
KST2 190204Z 05007KT 11/05 A2993 RMK A01 T01110046  RH  064%=      5-min Rain = 0
KST2 190205Z 05007KT 11/05 A2993 RMK A01 T01100046  RH  065%=      5-min Rain = 0
KST2 190206Z 05006KT 11/05 A2993 RMK A01 T01080046  RH  065%=      5-min Rain = 0
KST2 190207Z 05005KT 11/05 A2993 RMK A01 T01070046  RH  066%=      5-min Rain = 0
KST2 190208Z 05005KT 11/05 A2993 RMK A01 T01070047  RH  066%=      5-min Rain = 0
KST2 190209Z 06004KT 11/05 A2993 RMK A01 T01070047  RH  066%=      5-min Rain = 0
KST2 190210Z 06004KT 11/05 A2993 RMK A01 T01070047  RH  066%=      5-min Rain = 0
KST2 190211Z 06004KT 11/05 A2993 RMK A01 T01070047  RH  066%=      5-min Rain = 0
KST2 190212Z 06004KT 11/05 A2993 RMK A01 T01070047  RH  066%=      5-min Rain = 0
KST2 190213Z 06004KT 11/05 A2994 RMK A01 T01070047  RH  066%=      5-min Rain = 0
KST2 190214Z 07004KT 11/05 A2994 RMK A01 T01070046  RH  066%=      5-min Rain = 0
KST2 190215Z 07004KT 11/05 A2994 RMK A01 T01060046  RH  066%=      5-min Rain = 0
KST2 190216Z 08004KT 11/05 A2994 RMK A01 T01060046  RH  066%=      5-min Rain = 0
KST2 190217Z 09004KT 11/05 A2993 RMK A01 T01060045  RH  066%=      5-min Rain = 0
KST2 190218Z 09004KT 11/05 A2993 RMK A01 T01060045  RH  066%=      5-min Rain = 0
KST2 190219Z 09004KT 11/05 A2993 RMK A01 T01060045  RH  066%=      5-min Rain = 0
KST2 190220Z 10004KT 11/05 A2993 RMK A01 T01060046  RH  066%=      5-min Rain = 0
KST2 190221Z 10004KT 11/05 A2993 RMK A01 T01070046  RH  066%=      5-min Rain = 0
KST2 190222Z 10004KT 11/05 A2993 RMK A01 T01080046  RH  066%=      5-min Rain = 0
KST2 190223Z 10004KT 11/05 A2993 RMK A01 T01080047  RH  066%=      5-min Rain = 0
KST2 190224Z 10004KT 11/05 A2993 RMK A01 T01090047  RH  066%=      5-min Rain = 0
KST2 190225Z 10004KT 11/05 A2993 RMK A01 T01090047  RH  065%=      5-min Rain = 0
KST2 190226Z 10004KT 11/05 A2993 RMK A01 T01090046  RH  065%=      5-min Rain = 0
KST2 190227Z 10004KT 11/05 A2993 RMK A01 T01090046  RH  065%=      5-min Rain = 0
KST2 190228Z 10005KT 11/05 A2994 RMK A01 T01100047  RH  065%=      5-min Rain = 0
KST2 190229Z 10005KT 11/05 A2994 RMK A01 T01110047  RH  065%=      5-min Rain = 0
KST2 190230Z 10005KT 11/05 A2994 RMK A01 T01120047  RH  065%=      5-min Rain = 0
KST2 190231Z 10004KT 11/05 A2994 RMK A01 T01120047  RH  064%=      5-min Rain = 0
KST2 190232Z 10004KT 11/05 A2993 RMK A01 T01130047  RH  064%=      5-min Rain = 0
KST2 190233Z 11004KT 11/05 A2993 RMK A01 T01140047  RH  063%=      5-min Rain = 0
KST2 190234Z 11004KT 12/05 A2993 RMK A01 T01150047  RH  063%=      5-min Rain = 0
KST2 190235Z 11004KT 12/05 A2993 RMK A01 T01150047  RH  063%=      5-min Rain = 0
KST2 190236Z 11004KT 12/05 A2994 RMK A01 T01160047  RH  062%=      5-min Rain = 0
KST2 190237Z 11004KT 12/05 A2994 RMK A01 T01160047  RH  062%=      5-min Rain = 0
KST2 190238Z 12004KT 12/05 A2994 RMK A01 T01170047  RH  062%=      5-min Rain = 0
KST2 190239Z 12004KT 12/05 A2994 RMK A01 T01170047  RH  062%=      5-min Rain = 0
KST2 190240Z 12004KT 12/05 A2994 RMK A01 T01160046  RH  062%=      5-min Rain = 0
KST2 190241Z 13004KT 12/05 A2994 RMK A01 T01160046  RH  062%=      5-min Rain = 0
KST2 190242Z 13004KT 12/05 A2994 RMK A01 T01150046  RH  062%=      5-min Rain = 0
KST2 190243Z 14004KT 12/05 A2994 RMK A01 T01150046  RH  062%=      5-min Rain = 0
KST2 190244Z 15005KT 12/05 A2994 RMK A01 T01150046  RH  063%=      5-min Rain = 0
KST2 190245Z 15005KT 11/05 A2994 RMK A01 T01140046  RH  063%=      5-min Rain = 0
KST2 190246Z 15005KT 11/05 A2994 RMK A01 T01140046  RH  063%=      5-min Rain = 0
KST2 190247Z 16005KT 11/05 A2994 RMK A01 T01140047  RH  063%=      5-min Rain = 0
KST2 190248Z 16005KT 11/05 A2994 RMK A01 T01130047  RH  064%=      5-min Rain = 0
KST2 190249Z 16005KT 11/05 A2994 RMK A01 T01130048  RH  064%=      5-min Rain = 0
KST2 190250Z 16005KT 11/05 A2993 RMK A01 T01120047  RH  064%=      5-min Rain = 0
KST2 190251Z 16005KT 11/05 A2993 RMK A01 T01120047  RH  064%=      5-min Rain = 0
KST2 190252Z 16005KT 11/05 A2993 RMK A01 T01120048  RH  065%=      5-min Rain = 0
KST2 190253Z 16005KT 11/05 A2993 RMK A01 T01120048  RH  065%=      5-min Rain = 0
KST2 190254Z 16005KT 11/05 A2993 RMK A01 T01120049  RH  065%=      5-min Rain = 0
KST2 190255Z 16005KT 11/05 A2993 RMK A01 T01110049  RH  066%=      5-min Rain = 0
KST2 190256Z 16005KT 11/05 A2993 RMK A01 T01100049  RH  066%=      5-min Rain = 0
KST2 190257Z 16005KT 11/05 A2993 RMK A01 T01090049  RH  067%=      5-min Rain = 0
KST2 190258Z 16005KT 11/05 A2993 RMK A01 T01080049  RH  067%=      5-min Rain = 0
KST2 190259Z 17005KT 11/05 A2993 RMK A01 T01070048  RH  067%=      5-min Rain = 0
KST2 190300Z 17005KT 11/05 A2993 RMK A01 T01070048  RH  067%=      5-min Rain = 0
KST2 190301Z 17005KT 11/05 A2993 RMK A01 T01060048  RH  067%=      5-min Rain = 0
KST2 190302Z 17005KT 11/05 A2993 RMK A01 T01060048  RH  067%=      5-min Rain = 0
KST2 190303Z 18005KT 11/05 A2993 RMK A01 T01050048  RH  068%=      5-min Rain = 0
KST2 190304Z 18005KT 10/05 A2993 RMK A01 T01040049  RH  069%=      5-min Rain = 0
KST2 190305Z 18006KT 10/05 A2993 RMK A01 T01030049  RH  069%=      5-min Rain = 0
KST2 190306Z 18006KT 10/05 A2993 RMK A01 T01030049  RH  069%=      5-min Rain = 0
KST2 190307Z 18006KT 10/05 A2993 RMK A01 T01030049  RH  069%=      5-min Rain = 0
KST2 190308Z 18006KT 10/05 A2993 RMK A01 T01020049  RH  069%=      5-min Rain = 0
KST2 190309Z 19006KT 10/05 A2993 RMK A01 T01020049  RH  069%=      5-min Rain = 0
KST2 190310Z 19006KT 10/05 A2993 RMK A01 T01020049  RH  069%=      5-min Rain = 0
KST2 190311Z 19006KT 10/05 A2993 RMK A01 T01020048  RH  069%=      5-min Rain = 0
KST2 190312Z 19006KT 10/05 A2993 RMK A01 T01020048  RH  069%=      5-min Rain = 0
KST2 190313Z 19006KT 10/05 A2993 RMK A01 T01010048  RH  069%=      5-min Rain = 0
KST2 190314Z 19006KT 10/05 A2993 RMK A01 T01010048  RH  070%=      5-min Rain = 0
KST2 190315Z 19006KT 10/05 A2993 RMK A01 T01000048  RH  070%=      5-min Rain = 0
KST2 190316Z 19006KT 10/05 A2993 RMK A01 T01000047  RH  070%=      5-min Rain = 0
KST2 190317Z 20006KT 10/05 A2993 RMK A01 T00990047  RH  070%=      5-min Rain = 0
KST2 190318Z 20006KT 10/05 A2993 RMK A01 T00990047  RH  070%=      5-min Rain = 0
KST2 190319Z 20006KT 10/05 A2993 RMK A01 T00990047  RH  070%=      5-min Rain = 0
KST2 190320Z 20006KT 10/05 A2993 RMK A01 T00990048  RH  071%=      5-min Rain = 0
KST2 190321Z 20006KT 10/05 A2993 RMK A01 T00980048  RH  071%=      5-min Rain = 0
KST2 190322Z 20005KT 10/05 A2993 RMK A01 T00980048  RH  071%=      5-min Rain = 0
KST2 190323Z 20005KT 10/05 A2993 RMK A01 T00970048  RH  071%=      5-min Rain = 0
KST2 190324Z 20006KT 10/05 A2993 RMK A01 T00970047  RH  071%=      5-min Rain = 0
KST2 190325Z 20006KT 10/05 A2993 RMK A01 T00970047  RH  071%=      5-min Rain = 0
KST2 190326Z 20006KT 10/05 A2993 RMK A01 T00970047  RH  071%=      5-min Rain = 0
KST2 190327Z 20006KT 10/05 A2993 RMK A01 T00970047  RH  071%=      5-min Rain = 0
KST2 190328Z 20006KT 10/05 A2993 RMK A01 T00970047  RH  071%=      5-min Rain = 0
KST2 190329Z 20006KT 10/05 A2993 RMK A01 T00970047  RH  071%=      5-min Rain = 0
KST2 190330Z 20006KT 10/05 A2993 RMK A01 T00970047  RH  071%=      5-min Rain = 0
KST2 190331Z 20006KT 10/05 A2993 RMK A01 T00960047  RH  071%=      5-min Rain = 0
KST2 190332Z 20006KT 10/05 A2993 RMK A01 T00960047  RH  071%=      5-min Rain = 0
KST2 190333Z 20006KT 10/05 A2993 RMK A01 T00960047  RH  071%=      5-min Rain = 0
KST2 190334Z 20006KT 10/05 A2993 RMK A01 T00960046  RH  071%=      5-min Rain = 0
KST2 190335Z 20006KT 10/05 A2993 RMK A01 T00960047  RH  071%=      5-min Rain = 0
KST2 190336Z 20006KT 10/05 A2993 RMK A01 T00960046  RH  071%=      5-min Rain = 0
KST2 190337Z 21006KT 10/05 A2993 RMK A01 T00960046  RH  071%=      5-min Rain = 0
KST2 190338Z 21006KT 10/05 A2993 RMK A01 T00960046  RH  071%=      5-min Rain = 0
KST2 190339Z 21006KT 10/05 A2993 RMK A01 T00960046  RH  071%=      5-min Rain = 0
KST2 190340Z 21006KT 10/05 A2993 RMK A01 T00960045  RH  071%=      5-min Rain = 0
KST2 190341Z 21006KT 10/05 A2993 RMK A01 T00970046  RH  071%=      5-min Rain = 0
KST2 190342Z 21006KT 10/05 A2993 RMK A01 T00970046  RH  071%=      5-min Rain = 0
KST2 190343Z 21006KT 10/05 A2993 RMK A01 T00970046  RH  071%=      5-min Rain = 0
KST2 190344Z 21005KT 10/05 A2993 RMK A01 T00970046  RH  071%=      5-min Rain = 0
KST2 190345Z 20005KT 10/05 A2993 RMK A01 T00970046  RH  071%=      5-min Rain = 0
KST2 190346Z 20005KT 10/05 A2993 RMK A01 T00970046  RH  071%=      5-min Rain = 0
KST2 190347Z 20004KT 10/05 A2994 RMK A01 T00970046  RH  071%=      5-min Rain = 0
KST2 190348Z 20004KT 10/05 A2993 RMK A01 T00970046  RH  071%=      5-min Rain = 0
KST2 190349Z 19004KT 10/05 A2993 RMK A01 T00970046  RH  071%=      5-min Rain = 0
KST2 190350Z 19004KT 10/05 A2993 RMK A01 T00970046  RH  070%=      5-min Rain = 0
KST2 190351Z 19004KT 10/05 A2993 RMK A01 T00970045  RH  070%=      5-min Rain = 0
KST2 190352Z 19004KT 10/05 A2993 RMK A01 T00960045  RH  070%=      5-min Rain = 0
KST2 190353Z 20004KT 10/05 A2993 RMK A01 T00970045  RH  070%=      5-min Rain = 0
KST2 190354Z 20004KT 10/04 A2993 RMK A01 T00970044  RH  070%=      5-min Rain = 0
KST2 190355Z 20004KT 10/04 A2993 RMK A01 T00970044  RH  070%=      5-min Rain = 0
KST2 190356Z 20004KT 10/04 A2993 RMK A01 T00970044  RH  069%=      5-min Rain = 0
KST2 190357Z 20004KT 10/04 A2993 RMK A01 T00970044  RH  069%=      5-min Rain = 0
KST2 190358Z 20005KT 10/04 A2994 RMK A01 T00980044  RH  069%=      5-min Rain = 0
KST2 190359Z 20005KT 10/04 A2994 RMK A01 T00990044  RH  069%=      5-min Rain = 0
KST2 190400Z 20004KT 10/04 A2994 RMK A01 T00990044  RH  069%=      5-min Rain = 0
KST2 190401Z 20004KT 10/04 A2994 RMK A01 T00990044  RH  068%=      5-min Rain = 0
KST2 190402Z 20005KT 10/04 A2994 RMK A01 T01000044  RH  068%=      5-min Rain = 0
KST2 190403Z 20005KT 10/04 A2994 RMK A01 T01000043  RH  068%=      5-min Rain = 0
KST2 190404Z 20005KT 10/04 A2994 RMK A01 T01010043  RH  067%=      5-min Rain = 0
KST2 190405Z 20005KT 10/04 A2994 RMK A01 T01010043  RH  067%=      5-min Rain = 0
KST2 190406Z 21005KT 10/04 A2994 RMK A01 T01010042  RH  067%=      5-min Rain = 0
KST2 190407Z 22005KT 10/04 A2994 RMK A01 T01010042  RH  067%=      5-min Rain = 0
KST2 190408Z 22005KT 10/04 A2994 RMK A01 T01010042  RH  067%=      5-min Rain = 0
KST2 190409Z 22005KT 10/04 A2994 RMK A01 T01010042  RH  067%=      5-min Rain = 0
KST2 190410Z 22005KT 10/04 A2994 RMK A01 T01020042  RH  066%=      5-min Rain = 0
KST2 190411Z 22004KT 10/04 A2994 RMK A01 T01020042  RH  066%=      5-min Rain = 0
KST2 190412Z 22004KT 10/04 A2993 RMK A01 T01030041  RH  066%=      5-min Rain = 0
KST2 190413Z 22005KT 10/04 A2993 RMK A01 T01030041  RH  065%=      5-min Rain = 0
KST2 190414Z 22005KT 11/04 A2993 RMK A01 T01050042  RH  065%=      5-min Rain = 0
KST2 190415Z 22005KT 11/04 A2993 RMK A01 T01050042  RH  065%=      5-min Rain = 0
KST2 190416Z 22005KT 11/04 A2993 RMK A01 T01060042  RH  065%=      5-min Rain = 0
KST2 190417Z 22005KT 11/04 A2993 RMK A01 T01060041  RH  064%=      5-min Rain = 0
KST2 190418Z 22004KT 11/04 A2994 RMK A01 T01060041  RH  064%=      5-min Rain = 0
KST2 190419Z 22004KT 11/04 A2994 RMK A01 T01060042  RH  064%=      5-min Rain = 0
KST2 190420Z 22004KT 11/04 A2993 RMK A01 T01060042  RH  065%=      5-min Rain = 0
KST2 190421Z 22004KT 10/04 A2993 RMK A01 T01040042  RH  065%=      5-min Rain = 0
KST2 190422Z 22004KT 10/04 A2993 RMK A01 T01030042  RH  066%=      5-min Rain = 0
KST2 190423Z 22004KT 10/04 A2993 RMK A01 T01020041  RH  066%=      5-min Rain = 0
KST2 190424Z 22004KT 10/04 A2993 RMK A01 T01010042  RH  066%=      5-min Rain = 0
KST2 190425Z 22004KT 10/04 A2993 RMK A01 T01010042  RH  067%=      5-min Rain = 0
KST2 190426Z 23004KT 10/04 A2993 RMK A01 T01000042  RH  067%=      5-min Rain = 0
KST2 190427Z 23004KT 10/04 A2993 RMK A01 T01000042  RH  067%=      5-min Rain = 0
KST2 190428Z 23004KT 10/04 A2993 RMK A01 T00990041  RH  067%=      5-min Rain = 0
KST2 190429Z 23004KT 10/04 A2993 RMK A01 T00990041  RH  068%=      5-min Rain = 0
KST2 190430Z 23004KT 10/04 A2993 RMK A01 T00980042  RH  068%=      5-min Rain = 0
KST2 190431Z 23004KT 10/04 A2993 RMK A01 T00980042  RH  068%=      5-min Rain = 0
KST2 190432Z 23004KT 10/04 A2994 RMK A01 T00970042  RH  068%=      5-min Rain = 0
KST2 190433Z 23003KT 10/04 A2994 RMK A01 T00970041  RH  068%=      5-min Rain = 0
KST2 190434Z 23003KT 10/04 A2994 RMK A01 T00970042  RH  068%=      5-min Rain = 0
KST2 190435Z 22003KT 10/04 A2994 RMK A01 T00970042  RH  069%=      5-min Rain = 0
KST2 190436Z 22003KT 10/04 A2994 RMK A01 T00960041  RH  069%=      5-min Rain = 0
KST2 190437Z 22003KT 10/04 A2994 RMK A01 T00960041  RH  069%=      5-min Rain = 0
KST2 190438Z 22004KT 10/04 A2994 RMK A01 T00960042  RH  069%=      5-min Rain = 0
KST2 190439Z 22004KT 10/04 A2994 RMK A01 T00950043  RH  070%=      5-min Rain = 0
KST2 190440Z 21004KT 10/04 A2994 RMK A01 T00950043  RH  070%=      5-min Rain = 0
KST2 190441Z 21004KT 09/04 A2994 RMK A01 T00940043  RH  070%=      5-min Rain = 0
KST2 190442Z 21004KT 09/04 A2994 RMK A01 T00940043  RH  070%=      5-min Rain = 0
KST2 190443Z 21004KT 09/04 A2994 RMK A01 T00940043  RH  070%=      5-min Rain = 0
KST2 190444Z 21003KT 09/04 A2994 RMK A01 T00940042  RH  070%=      5-min Rain = 0
KST2 190445Z 21003KT 09/04 A2994 RMK A01 T00940042  RH  070%=      5-min Rain = 0
KST2 190446Z 21003KT 09/04 A2994 RMK A01 T00940042  RH  070%=      5-min Rain = 0
KST2 190447Z 21004KT 09/04 A2994 RMK A01 T00940041  RH  070%=      5-min Rain = 0
KST2 190448Z 21004KT 09/04 A2994 RMK A01 T00930041  RH  070%=      5-min Rain = 0
KST2 190449Z 22003KT 09/04 A2994 RMK A01 T00930041  RH  070%=      5-min Rain = 0
KST2 190450Z 22003KT 09/04 A2994 RMK A01 T00930041  RH  070%=      5-min Rain = 0
KST2 190451Z 23003KT 09/04 A2994 RMK A01 T00930041  RH  070%=      5-min Rain = 0
KST2 190452Z 23003KT 09/04 A2994 RMK A01 T00930041  RH  070%=      5-min Rain = 0
KST2 190453Z 23003KT 09/04 A2994 RMK A01 T00940041  RH  070%=      5-min Rain = 0
KST2 190454Z 23003KT 09/04 A2994 RMK A01 T00940041  RH  070%=      5-min Rain = 0
KST2 190455Z 23003KT 09/04 A2994 RMK A01 T00940042  RH  070%=      5-min Rain = 0
KST2 190456Z 23003KT 09/04 A2994 RMK A01 T00940042  RH  070%=      5-min Rain = 0
KST2 190457Z 23003KT 09/04 A2994 RMK A01 T00940042  RH  070%=      5-min Rain = 0
KST2 190458Z 23003KT 09/04 A2994 RMK A01 T00940042  RH  070%=      5-min Rain = 0
KST2 190459Z 23003KT 09/04 A2994 RMK A01 T00930042  RH  071%=      5-min Rain = 0
KST2 190500Z 23003KT 09/04 A2994 RMK A01 T00930042  RH  071%=      5-min Rain = 0
KST2 190501Z 23003KT 09/04 A2994 RMK A01 T00920042  RH  071%=      5-min Rain = 0
KST2 190502Z 23003KT 09/04 A2994 RMK A01 T00920042  RH  071%=      5-min Rain = 0
KST2 190503Z 23003KT 09/04 A2994 RMK A01 T00920042  RH  071%=      5-min Rain = 0
KST2 190504Z 23003KT 09/04 A2994 RMK A01 T00910042  RH  071%=      5-min Rain = 0
KST2 190505Z 23003KT 09/04 A2994 RMK A01 T00910042  RH  071%=      5-min Rain = 0
KST2 190506Z 23003KT 09/04 A2994 RMK A01 T00910042  RH  071%=      5-min Rain = 0
KST2 190507Z 24003KT 09/04 A2994 RMK A01 T00910042  RH  071%=      5-min Rain = 0
KST2 190508Z 24004KT 09/04 A2994 RMK A01 T00910042  RH  071%=      5-min Rain = 0
KST2 190509Z 24004KT 09/04 A2994 RMK A01 T00910041  RH  071%=      5-min Rain = 0
KST2 190510Z 24004KT 09/04 A2994 RMK A01 T00910042  RH  071%=      5-min Rain = 0
KST2 190511Z 23004KT 09/04 A2994 RMK A01 T00910042  RH  071%=      5-min Rain = 0
KST2 190512Z 23005KT 09/04 A2994 RMK A01 T00910042  RH  071%=      5-min Rain = 0
KST2 190513Z 23004KT 09/04 A2994 RMK A01 T00900042  RH  072%=      5-min Rain = 0
KST2 190514Z 23004KT 09/04 A2994 RMK A01 T00900042  RH  072%=      5-min Rain = 0
KST2 190515Z 23004KT 09/04 A2994 RMK A01 T00890042  RH  072%=      5-min Rain = 0
KST2 190516Z 23004KT 09/04 A2994 RMK A01 T00890042  RH  073%=      5-min Rain = 0
KST2 190517Z 23004KT 09/04 A2994 RMK A01 T00880042  RH  073%=      5-min Rain = 0
KST2 190518Z 22004KT 09/04 A2994 RMK A01 T00880042  RH  073%=      5-min Rain = 0
KST2 190519Z 22004KT 09/04 A2994 RMK A01 T00880043  RH  073%=      5-min Rain = 0
KST2 190520Z 22004KT 09/04 A2994 RMK A01 T00870042  RH  073%=      5-min Rain = 0
KST2 190521Z 22004KT 09/04 A2994 RMK A01 T00870042  RH  073%=      5-min Rain = 0
KST2 190522Z 21004KT 09/04 A2994 RMK A01 T00870042  RH  073%=      5-min Rain = 0
KST2 190523Z 21004KT 09/04 A2994 RMK A01 T00870042  RH  074%=      5-min Rain = 0
KST2 190524Z 21004KT 09/04 A2994 RMK A01 T00860042  RH  074%=      5-min Rain = 0
KST2 190525Z 21004KT 09/04 A2994 RMK A01 T00860041  RH  074%=      5-min Rain = 0
KST2 190526Z 21004KT 09/04 A2995 RMK A01 T00860041  RH  073%=      5-min Rain = 0
KST2 190527Z 21004KT 09/04 A2995 RMK A01 T00860041  RH  073%=      5-min Rain = 0
KST2 190528Z 21004KT 09/04 A2995 RMK A01 T00860042  RH  074%=      5-min Rain = 0
KST2 190529Z 21005KT 09/04 A2995 RMK A01 T00870043  RH  074%=      5-min Rain = 0
KST2 190530Z 21005KT 09/04 A2995 RMK A01 T00880044  RH  073%=      5-min Rain = 0
KST2 190531Z 21005KT 09/04 A2995 RMK A01 T00890044  RH  073%=      5-min Rain = 0
KST2 190532Z 21005KT 09/04 A2995 RMK A01 T00900044  RH  073%=      5-min Rain = 0
KST2 190533Z 21005KT 09/04 A2995 RMK A01 T00900044  RH  073%=      5-min Rain = 0
KST2 190534Z 21005KT 09/04 A2995 RMK A01 T00900044  RH  073%=      5-min Rain = 0
KST2 190535Z 21005KT 09/04 A2995 RMK A01 T00900044  RH  073%=      5-min Rain = 0
KST2 190536Z 22005KT 09/04 A2995 RMK A01 T00890044  RH  073%=      5-min Rain = 0
KST2 190537Z 22005KT 09/04 A2995 RMK A01 T00890044  RH  073%=      5-min Rain = 0
KST2 190538Z 22005KT 09/04 A2995 RMK A01 T00890044  RH  073%=      5-min Rain = 0
KST2 190539Z 22004KT 09/04 A2995 RMK A01 T00880044  RH  073%=      5-min Rain = 0
KST2 190540Z 22004KT 09/04 A2995 RMK A01 T00880044  RH  074%=      5-min Rain = 0
KST2 190541Z 22004KT 09/04 A2995 RMK A01 T00880043  RH  074%=      5-min Rain = 0
KST2 190542Z 22004KT 09/04 A2995 RMK A01 T00880043  RH  074%=      5-min Rain = 0
KST2 190543Z 22004KT 09/04 A2995 RMK A01 T00880043  RH  074%=      5-min Rain = 0
KST2 190544Z 22004KT 09/04 A2995 RMK A01 T00870043  RH  074%=      5-min Rain = 0
KST2 190545Z 22004KT 09/04 A2995 RMK A01 T00870043  RH  074%=      5-min Rain = 0
KST2 190546Z 22004KT 09/04 A2995 RMK A01 T00880043  RH  074%=      5-min Rain = 0
KST2 190547Z 22004KT 09/04 A2995 RMK A01 T00870043  RH  074%=      5-min Rain = 0
KST2 190548Z 22004KT 09/04 A2995 RMK A01 T00870043  RH  074%=      5-min Rain = 0
KST2 190549Z 22004KT 09/04 A2995 RMK A01 T00870043  RH  074%=      5-min Rain = 0
KST2 190550Z 22003KT 09/04 A2995 RMK A01 T00860043  RH  074%=      5-min Rain = 0
KST2 190551Z 21004KT 09/04 A2995 RMK A01 T00860043  RH  075%=      5-min Rain = 0
KST2 190552Z 21004KT 09/04 A2995 RMK A01 T00850043  RH  075%=      5-min Rain = 0
KST2 190553Z 21004KT 09/04 A2995 RMK A01 T00850043  RH  075%=      5-min Rain = 0
KST2 190554Z 21004KT 09/04 A2995 RMK A01 T00850042  RH  074%=      5-min Rain = 0
KST2 190555Z 21004KT 09/04 A2995 RMK A01 T00850042  RH  074%=      5-min Rain = 0
KST2 190556Z 22004KT 09/04 A2995 RMK A01 T00850041  RH  074%=      5-min Rain = 0
KST2 190557Z 22004KT 09/04 A2995 RMK A01 T00860041  RH  074%=      5-min Rain = 0
KST2 190558Z 22004KT 09/04 A2995 RMK A01 T00860042  RH  074%=      5-min Rain = 0
KST2 190559Z 22004KT 09/04 A2995 RMK A01 T00860042  RH  074%=      5-min Rain = 0

Page generated in 0.0729 seconds.